Wetterdaten: Montag, 27.07.2015
Datum Zeit Temp. Aussen +5cm Feuchte Auss BlattFeu 1 Luftdruck Regen Sonnenschein Regendauer Solar Windben
27.07.2015 00:00 14,3 C 12,2 C 89 % 1 lf 1003,0 hPa 0,0 l/m 0 min 0 min 0 W/m 23,0 km/h (4 Bft)
27.07.2015 00:02 14,3 C 12,2 C 88 % 1 lf 1002,9 hPa 0,0 l/m 0 min 2 min 0 W/m 27,2 km/h (4 Bft)
27.07.2015 00:05 14,3 C 12,2 C 88 % 0 lf 1002,9 hPa 0,0 l/m 0 min 0 min 0 W/m 25,1 km/h (4 Bft)
27.07.2015 00:08 14,4 C 12,2 C 88 % 0 lf 1002,9 hPa 0,0 l/m 0 min 0 min 0 W/m 29,3 km/h (5 Bft)
27.07.2015 00:10 14,4 C 12,2 C 88 % 0 lf 1002,9 hPa 0,0 l/m 0 min 0 min 0 W/m 14,6 km/h (3 Bft)
27.07.2015 00:12 14,4 C 12,2 C 88 % 0 lf 1002,9 hPa 0,0 l/m 0 min 0 min 0 W/m 35,6 km/h (5 Bft)
27.07.2015 00:14 14,4 C 12,2 C 88 % 0 lf 1002,9 hPa 0,0 l/m 0 min 0 min 0 W/m 16,7 km/h (3 Bft)
27.07.2015 00:16 14,4 C 12,2 C 88 % 0 lf 1002,9 hPa 0,0 l/m 0 min 0 min 0 W/m 20,9 km/h (4 Bft)
27.07.2015 00:18 14,4 C 12,2 C 87 % 0 lf 1002,8 hPa 0,0 l/m 0 min 0 min 0 W/m 18,8 km/h (3 Bft)
27.07.2015 00:20 14,4 C 12,2 C 87 % 0 lf 1002,8 hPa 0,0 l/m 0 min 0 min 0 W/m 16,7 km/h (3 Bft)
27.07.2015 00:22 14,5 C 12,2 C 87 % 0 lf 1002,8 hPa 0,0 l/m 0 min 0 min 0 W/m 23,0 km/h (4 Bft)
27.07.2015 00:24 14,5 C 12,2 C 87 % 0 lf 1002,8 hPa 0,0 l/m 0 min 0 min 0 W/m 25,1 km/h (4 Bft)
27.07.2015 00:26 14,5 C 12,2 C 87 % 0 lf 1002,8 hPa 0,0 l/m 0 min 0 min 0 W/m 18,8 km/h (3 Bft)
27.07.2015 00:28 14,5 C 12,2 C 87 % 2 lf 1002,8 hPa 0,0 l/m 0 min 2 min 0 W/m 23,0 km/h (4 Bft)
27.07.2015 00:30 14,6 C 12,2 C 87 % 0 lf 1002,7 hPa 0,0 l/m 0 min 2 min 0 W/m 20,9 km/h (4 Bft)
27.07.2015 00:32 14,6 C 12,2 C 87 % 2 lf 1002,7 hPa 0,0 l/m 0 min 2 min 0 W/m 18,8 km/h (3 Bft)
27.07.2015 00:34 14,6 C 12,2 C 87 % 7 lf 1002,7 hPa 0,0 l/m 0 min 2 min 0 W/m 29,3 km/h (5 Bft)
27.07.2015 00:36 14,6 C 12,2 C 87 % 9 lf 1002,7 hPa 0,0 l/m 0 min 2 min 0 W/m 37,7 km/h (5 Bft)
27.07.2015 00:38 14,6 C 12,2 C 87 % 13 lf 1002,7 hPa 0,0 l/m 0 min 2 min 0 W/m 23,0 km/h (4 Bft)
27.07.2015 00:40 14,6 C 12,2 C 87 % 14 lf 1002,7 hPa 0,0 l/m 0 min 2 min 0 W/m 18,8 km/h (3 Bft)
27.07.2015 00:42 14,6 C 12,2 C 88 % 15 lf 1002,7 hPa 0,0 l/m 0 min 2 min 0 W/m 23,0 km/h (4 Bft)
27.07.2015 00:44 14,6 C 12,2 C 88 % 15 lf 1002,6 hPa 0,0 l/m 0 min 2 min 0 W/m 25,1 km/h (4 Bft)
27.07.2015 00:46 14,5 C 12,2 C 88 % 15 lf 1002,6 hPa 0,2 l/m 0 min 2 min 0 W/m 14,6 km/h (3 Bft)
27.07.2015 00:48 14,5 C 12,2 C 89 % 15 lf 1002,6 hPa 0,2 l/m 0 min 2 min 0 W/m 23,0 km/h (4 Bft)
27.07.2015 00:50 14,4 C 12,2 C 89 % 15 lf 1002,5 hPa 0,0 l/m 0 min 2 min 0 W/m 20,9 km/h (4 Bft)
27.07.2015 00:52 14,4 C 12,2 C 89 % 15 lf 1002,5 hPa 0,0 l/m 0 min 2 min 0 W/m 23,0 km/h (4 Bft)
27.07.2015 00:54 14,3 C 12,2 C 89 % 15 lf 1002,6 hPa 0,0 l/m 0 min 2 min 0 W/m 29,3 km/h (5 Bft)
27.07.2015 00:56 14,3 C 12,2 C 90 % 15 lf 1002,5 hPa 0,2 l/m 0 min 2 min 0 W/m 20,9 km/h (4 Bft)
27.07.2015 00:58 14,2 C 12,2 C 90 % 15 lf 1002,3 hPa 0,0 l/m 0 min 2 min 0 W/m 20,9 km/h (4 Bft)
27.07.2015 01:00 14,2 C 12,2 C 90 % 15 lf 1002,2 hPa 0,2 l/m 0 min 2 min 0 W/m 14,6 km/h (3 Bft)
27.07.2015 01:02 14,2 C 12,2 C 90 % 15 lf 1002,3 hPa 0,0 l/m 0 min 2 min 0 W/m 23,0 km/h (4 Bft)
27.07.2015 01:04 14,2 C 12,2 C 91 % 15 lf 1002,3 hPa 0,0 l/m 0 min 2 min 0 W/m 14,6 km/h (3 Bft)
27.07.2015 01:06 14,1 C 12,2 C 91 % 15 lf 1002,3 hPa 0,0 l/m 0 min 2 min 0 W/m 16,7 km/h (3 Bft)
27.07.2015 01:08 14,1 C 12,2 C 91 % 15 lf 1002,0 hPa 0,2 l/m 0 min 2 min 0 W/m 12,6 km/h (3 Bft)
27.07.2015 01:10 14,0 C 12,2 C 91 % 15 lf 1002,0 hPa 0,0 l/m 0 min 2 min 0 W/m 14,6 km/h (3 Bft)
27.07.2015 01:12 13,9 C 12,2 C 92 % 15 lf 1002,0 hPa 0,0 l/m 0 min 2 min 0 W/m 10,5 km/h (2 Bft)
27.07.2015 01:14 13,9 C 12,2 C 92 % 15 lf 1002,0 hPa 0,0 l/m 0 min 0 min 0 W/m 12,6 km/h (3 Bft)
27.07.2015 01:16 13,9 C 12,2 C 92 % 15 lf 1002,0 hPa 0,0 l/m 0 min 0 min 0 W/m 12,6 km/h (3 Bft)
27.07.2015 01:18 13,8 C 12,2 C 92 % 15 lf 1002,0 hPa 0,0 l/m 0 min 0 min 0 W/m 12,6 km/h (3 Bft)
27.07.2015 01:20 13,8 C 12,2 C 92 % 15 lf 1001,9 hPa 0,0 l/m 0 min 0 min 0 W/m 8,4 km/h (2 Bft)
27.07.2015 01:22 13,8 C 12,2 C 93 % 15 lf 1001,9 hPa 0,0 l/m 0 min 0 min 0 W/m 14,6 km/h (3 Bft)
27.07.2015 01:24 13,7 C 12,2 C 93 % 15 lf 1001,9 hPa 0,0 l/m 0 min 0 min 0 W/m 14,6 km/h (3 Bft)
27.07.2015 01:26 13,7 C 12,2 C 93 % 15 lf 1001,9 hPa 0,0 l/m 0 min 0 min 0 W/m 16,7 km/h (3 Bft)
27.07.2015 01:28 13,7 C 12,2 C 93 % 15 lf 1001,9 hPa 0,0 l/m 0 min 0 min 0 W/m 12,6 km/h (3 Bft)
27.07.2015 01:30 13,7 C 12,2 C 93 % 15 lf 1001,8 hPa 0,0 l/m 0 min 0 min 0 W/m 14,6 km/h (3 Bft)
27.07.2015 01:32 13,7 C 12,2 C 93 % 15 lf 1001,8 hPa 0,0 l/m 0 min 0 min 0 W/m 16,7 km/h (3 Bft)
27.07.2015 01:34 13,6 C 12,2 C 93 % 15 lf 1001,7 hPa 0,0 l/m 0 min 0 min 0 W/m 12,6 km/h (3 Bft)
27.07.2015 01:36 13,6 C 12,2 C 94 % 15 lf 1001,7 hPa 0,0 l/m 0 min 0 min 0 W/m 10,5 km/h (2 Bft)
27.07.2015 01:38 13,6 C 12,2 C 94 % 15 lf 1001,7 hPa 0,0 l/m 0 min 0 min 0 W/m 14,6 km/h (3 Bft)
27.07.2015 01:40 13,6 C 12,2 C 94 % 15 lf 1001,6 hPa 0,0 l/m 0 min 0 min 0 W/m 12,6 km/h (3 Bft)
27.07.2015 01:42 13,6 C 12,2 C 94 % 15 lf 1001,6 hPa 0,0 l/m 0 min 0 min 0 W/m 10,5 km/h (2 Bft)
27.07.2015 01:44 13,6 C 12,2 C 94 % 15 lf 1001,6 hPa 0,0 l/m 0 min 0 min 0 W/m 12,6 km/h (3 Bft)
27.07.2015 01:46 13,6 C 12,2 C 94 % 15 lf 1001,5 hPa 0,0 l/m 0 min 0 min 0 W/m 10,5 km/h (2 Bft)
27.07.2015 01:48 13,6 C 12,2 C 94 % 15 lf 1001,5 hPa 0,0 l/m 0 min 0 min 0 W/m 8,4 km/h (2 Bft)
27.07.2015 01:50 13,6 C 12,2 C 94 % 15 lf 1001,4 hPa 0,0 l/m 0 min 0 min 0 W/m 10,5 km/h (2 Bft)
27.07.2015 01:52 13,6 C 12,2 C 94 % 15 lf 1001,3 hPa 0,0 l/m 0 min 0 min 0 W/m 10,5 km/h (2 Bft)
27.07.2015 01:54 13,6 C 12,2 C 94 % 15 lf 1001,3 hPa 0,0 l/m 0 min 0 min 0 W/m 14,6 km/h (3 Bft)
27.07.2015 01:56 13,6 C 12,2 C 94 % 15 lf 1001,3 hPa 0,0 l/m 0 min 0 min 0 W/m 12,6 km/h (3 Bft)
27.07.2015 01:58 13,6 C 12,2 C 94 % 15 lf 1001,3 hPa 0,0 l/m 0 min 0 min 0 W/m 10,5 km/h (2 Bft)
27.07.2015 02:00 13,6 C 12,2 C 94 % 15 lf 1001,3 hPa 0,0 l/m 0 min 0 min 0 W/m 12,6 km/h (3 Bft)
27.07.2015 02:02 13,6 C 12,2 C 94 % 15 lf 1001,2 hPa 0,0 l/m 0 min 0 min 0 W/m 10,5 km/h (2 Bft)
27.07.2015 02:04 13,6 C 12,2 C 95 % 15 lf 1001,2 hPa 0,0 l/m 0 min 0 min 0 W/m 8,4 km/h (2 Bft)
27.07.2015 02:06 13,6 C 12,2 C 95 % 15 lf 1001,2 hPa 0,0 l/m 0 min 0 min 0 W/m 12,6 km/h (3 Bft)
27.07.2015 02:08 13,6 C 12,2 C 95 % 15 lf 1001,2 hPa 0,0 l/m 0 min 0 min 0 W/m 14,6 km/h (3 Bft)
27.07.2015 02:10 13,6 C 12,2 C 95 % 15 lf 1001,2 hPa 0,0 l/m 0 min 0 min 0 W/m 10,5 km/h (2 Bft)
27.07.2015 02:12 13,6 C 12,2 C 95 % 15 lf 1001,2 hPa 0,0 l/m 0 min 0 min 0 W/m 10,5 km/h (2 Bft)
27.07.2015 02:14 13,6 C 12,2 C 95 % 15 lf 1001,2 hPa 0,0 l/m 0 min 0 min 0 W/m 10,5 km/h (2 Bft)
27.07.2015 02:16 13,6 C 12,2 C 95 % 15 lf 1001,2 hPa 0,0 l/m 0 min 0 min 0 W/m 10,5 km/h (2 Bft)
27.07.2015 02:18 13,6 C 12,2 C 95 % 15 lf 1001,2 hPa 0,0 l/m 0 min 0 min 0 W/m 8,4 km/h (2 Bft)
27.07.2015 02:20 13,6 C 12,2 C 95 % 15 lf 1001,2 hPa 0,0 l/m 0 min 0 min 0 W/m 12,6 km/h (3 Bft)
27.07.2015 02:22 13,6 C 12,2 C 95 % 15 lf 1001,1 hPa 0,0 l/m 0 min 0 min 0 W/m 12,6 km/h (3 Bft)
27.07.2015 02:24 13,6 C 12,2 C 95 % 15 lf 1001,1 hPa 0,0 l/m 0 min 0 min 0 W/m 16,7 km/h (3 Bft)
27.07.2015 02:26 13,6 C 12,2 C 95 % 15 lf 1001,1 hPa 0,0 l/m 0 min 0 min 0 W/m 10,5 km/h (2 Bft)
27.07.2015 02:28 13,6 C 12,2 C 95 % 15 lf 1001,1 hPa 0,0 l/m 0 min 0 min 0 W/m 14,6 km/h (3 Bft)
27.07.2015 02:30 13,6 C 12,2 C 95 % 15 lf 1001,0 hPa 0,0 l/m 0 min 0 min 0 W/m 10,5 km/h (2 Bft)
27.07.2015 02:32 13,6 C 12,2 C 95 % 15 lf 1001,1 hPa 0,0 l/m 0 min 0 min 0 W/m 14,6 km/h (3 Bft)
27.07.2015 02:34 13,6 C 12,2 C 95 % 15 lf 1001,0 hPa 0,0 l/m 0 min 0 min 0 W/m 10,5 km/h (2 Bft)
27.07.2015 02:36 13,6 C 12,2 C 95 % 15 lf 1001,0 hPa 0,0 l/m 0 min 0 min 0 W/m 10,5 km/h (2 Bft)
27.07.2015 02:38 13,6 C 12,2 C 95 % 15 lf 1001,0 hPa 0,0 l/m 0 min 0 min 0 W/m 10,5 km/h (2 Bft)
27.07.2015 02:40 13,6 C 12,2 C 95 % 15 lf 1001,0 hPa 0,0 l/m 0 min 0 min 0 W/m 10,5 km/h (2 Bft)
27.07.2015 02:42 13,7 C 12,2 C 95 % 15 lf 1001,0 hPa 0,0 l/m 0 min 0 min 0 W/m 14,6 km/h (3 Bft)
27.07.2015 02:44 13,7 C 12,2 C 95 % 15 lf 1001,0 hPa 0,0 l/m 0 min 0 min 0 W/m 14,6 km/h (3 Bft)
27.07.2015 02:46 13,7 C 12,2 C 95 % 15 lf 1001,0 hPa 0,0 l/m 0 min 0 min 0 W/m 14,6 km/h (3 Bft)
27.07.2015 02:48 13,7 C 12,2 C 95 % 15 lf 1001,0 hPa 0,0 l/m 0 min 0 min 0 W/m 12,6 km/h (3 Bft)
27.07.2015 02:50 13,7 C 12,2 C 95 % 15 lf 1000,9 hPa 0,0 l/m 0 min 0 min 0 W/m 10,5 km/h (2 Bft)
27.07.2015 02:52 13,7 C 12,2 C 96 % 15 lf 1000,9 hPa 0,0 l/m 0 min 0 min 0 W/m 12,6 km/h (3 Bft)
27.07.2015 02:54 13,7 C 12,8 C 96 % 15 lf 1000,9 hPa 0,0 l/m 0 min 0 min 0 W/m 12,6 km/h (3 Bft)
27.07.2015 02:56 13,7 C 12,2 C 96 % 15 lf 1000,9 hPa 0,0 l/m 0 min 0 min 0 W/m 12,6 km/h (3 Bft)
27.07.2015 02:58 13,7 C 12,8 C 96 % 15 lf 1000,9 hPa 0,0 l/m 0 min 0 min 0 W/m 10,5 km/h (2 Bft)
27.07.2015 03:00 13,8 C 12,8 C 96 % 15 lf 1000,9 hPa 0,0 l/m 0 min 0 min 0 W/m 10,5 km/h (2 Bft)
27.07.2015 03:02 13,8 C 12,2 C 96 % 15 lf 1000,9 hPa 0,0 l/m 0 min 0 min 0 W/m 12,6 km/h (3 Bft)
27.07.2015 03:04 13,8 C 12,8 C 96 % 15 lf 1000,8 hPa 0,0 l/m 0 min 0 min 0 W/m 10,5 km/h (2 Bft)
27.07.2015 03:06 13,8 C 12,8 C 96 % 15 lf 1000,8 hPa 0,0 l/m 0 min 0 min 0 W/m 8,4 km/h (2 Bft)
27.07.2015 03:08 13,8 C 12,8 C 96 % 15 lf 1000,8 hPa 0,0 l/m 0 min 0 min 0 W/m 12,6 km/h (3 Bft)
27.07.2015 03:10 13,8 C 12,8 C 96 % 14 lf 1000,8 hPa 0,0 l/m 0 min 0 min 0 W/m 12,6 km/h (3 Bft)
27.07.2015 03:12 13,8 C 12,8 C 96 % 14 lf 1000,8 hPa 0,0 l/m 0 min 0 min 0 W/m 8,4 km/h (2 Bft)
27.07.2015 03:14 13,8 C 12,8 C 96 % 14 lf 1000,7 hPa 0,0 l/m 0 min 0 min 0 W/m 8,4 km/h (2 Bft)
27.07.2015 03:16 13,9 C 12,8 C 96 % 14 lf 1000,8 hPa 0,0 l/m 0 min 0 min 0 W/m 10,5 km/h (2 Bft)
27.07.2015 03:18 13,9 C 12,8 C 96 % 13 lf 1000,7 hPa 0,0 l/m 0 min 0 min 0 W/m 12,6 km/h (3 Bft)
27.07.2015 03:20 13,9 C 12,8 C 96 % 13 lf 1000,7 hPa 0,0 l/m 0 min 0 min 0 W/m 10,5 km/h (2 Bft)
27.07.2015 03:22 13,9 C 12,8 C 96 % 13 lf 1000,7 hPa 0,0 l/m 0 min 0 min 0 W/m 10,5 km/h (2 Bft)
27.07.2015 03:24 13,9 C 12,8 C 96 % 12 lf 1000,8 hPa 0,0 l/m 0 min 0 min 0 W/m 10,5 km/h (2 Bft)
27.07.2015 03:26 13,9 C 12,8 C 96 % 12 lf 1000,6 hPa 0,0 l/m 0 min 0 min 0 W/m 8,4 km/h (2 Bft)
27.07.2015 03:28 13,9 C 12,8 C 96 % 11 lf 1000,7 hPa 0,0 l/m 0 min 0 min 0 W/m 10,5 km/h (2 Bft)
27.07.2015 03:30 14,0 C 12,8 C 96 % 10 lf 1000,7 hPa 0,0 l/m 0 min 0 min 0 W/m 10,5 km/h (2 Bft)
27.07.2015 03:32 14,0 C 12,8 C 96 % 9 lf 1000,7 hPa 0,0 l/m 0 min 0 min 0 W/m 6,3 km/h (2 Bft)
27.07.2015 03:34 14,0 C 12,8 C 96 % 8 lf 1000,7 hPa 0,0 l/m 0 min 0 min 0 W/m 10,5 km/h (2 Bft)
27.07.2015 03:36 14,0 C 12,8 C 96 % 7 lf 1000,7 hPa 0,0 l/m 0 min 0 min 0 W/m 6,3 km/h (2 Bft)
27.07.2015 03:38 14,0 C 12,8 C 96 % 6 lf 1000,7 hPa 0,0 l/m 0 min 0 min 0 W/m 8,4 km/h (2 Bft)
27.07.2015 03:40 14,0 C 12,8 C 96 % 4 lf 1000,7 hPa 0,0 l/m 0 min 0 min 0 W/m 10,5 km/h (2 Bft)
27.07.2015 03:42 14,1 C 12,8 C 96 % 4 lf 1000,5 hPa 0,0 l/m 0 min 0 min 0 W/m 10,5 km/h (2 Bft)
27.07.2015 03:44 14,1 C 12,8 C 96 % 3 lf 1000,6 hPa 0,0 l/m 0 min 0 min 0 W/m 6,3 km/h (2 Bft)
27.07.2015 03:46 14,1 C 12,8 C 96 % 3 lf 1000,6 hPa 0,0 l/m 0 min 0 min 0 W/m 10,5 km/h (2 Bft)
27.07.2015 03:48 14,2 C 12,8 C 96 % 3 lf 1000,5 hPa 0,0 l/m 0 min 0 min 0 W/m 8,4 km/h (2 Bft)
27.07.2015 03:50 14,2 C 12,8 C 96 % 2 lf 1000,4 hPa 0,0 l/m 0 min 0 min 0 W/m 8,4 km/h (2 Bft)
27.07.2015 03:52 14,2 C 12,8 C 96 % 2 lf 1000,3 hPa 0,0 l/m 0 min 0 min 0 W/m 6,3 km/h (2 Bft)
27.07.2015 03:54 14,2 C 12,8 C 96 % 2 lf 1000,3 hPa 0,0 l/m 0 min 0 min 0 W/m 10,5 km/h (2 Bft)
27.07.2015 03:56 14,2 C 12,8 C 96 % 2 lf 1000,3 hPa 0,0 l/m 0 min 0 min 0 W/m 14,6 km/h (3 Bft)
27.07.2015 03:58 14,2 C 12,8 C 96 % 2 lf 1000,3 hPa 0,0 l/m 0 min 0 min 0 W/m 14,6 km/h (3 Bft)
27.07.2015 04:00 14,2 C 12,8 C 96 % 2 lf 1000,3 hPa 0,0 l/m 0 min 0 min 0 W/m 20,9 km/h (4 Bft)
27.07.2015 04:02 14,2 C 12,8 C 96 % 2 lf 1000,3 hPa 0,0 l/m 0 min 0 min 0 W/m 10,5 km/h (2 Bft)
27.07.2015 04:04 14,2 C 12,8 C 96 % 2 lf 1000,3 hPa 0,0 l/m 0 min 0 min 0 W/m 16,7 km/h (3 Bft)
27.07.2015 04:06 14,2 C 12,8 C 96 % 2 lf 1000,3 hPa 0,0 l/m 0 min 0 min 0 W/m 12,6 km/h (3 Bft)
27.07.2015 04:08 14,2 C 12,8 C 96 % 2 lf 1000,3 hPa 0,0 l/m 0 min 0 min 0 W/m 10,5 km/h (2 Bft)
27.07.2015 04:10 14,2 C 12,8 C 96 % 2 lf 1000,2 hPa 0,0 l/m 0 min 0 min 0 W/m 10,5 km/h (2 Bft)
27.07.2015 04:12 14,2 C 12,8 C 96 % 2 lf 1000,2 hPa 0,0 l/m 0 min 0 min 0 W/m 10,5 km/h (2 Bft)
27.07.2015 04:14 14,2 C 12,8 C 96 % 2 lf 1000,2 hPa 0,0 l/m 0 min 0 min 0 W/m 10,5 km/h (2 Bft)
27.07.2015 04:16 14,2 C 12,8 C 96 % 2 lf 1000,2 hPa 0,0 l/m 0 min 0 min 0 W/m 10,5 km/h (2 Bft)
27.07.2015 04:18 14,2 C 12,8 C 96 % 2 lf 1000,3 hPa 0,0 l/m 0 min 0 min 0 W/m 14,6 km/h (3 Bft)
27.07.2015 04:20 14,2 C 12,8 C 96 % 2 lf 1000,2 hPa 0,0 l/m 0 min 0 min 0 W/m 12,6 km/h (3 Bft)
27.07.2015 04:22 14,2 C 12,8 C 96 % 2 lf 1000,2 hPa 0,0 l/m 0 min 0 min 0 W/m 12,6 km/h (3 Bft)
27.07.2015 04:24 14,2 C 12,8 C 96 % 2 lf 1000,2 hPa 0,0 l/m 0 min 0 min 0 W/m 16,7 km/h (3 Bft)
27.07.2015 04:26 14,2 C 12,8 C 96 % 2 lf 1000,2 hPa 0,0 l/m 0 min 0 min 0 W/m 16,7 km/h (3 Bft)
27.07.2015 04:28 14,2 C 12,8 C 96 % 2 lf 1000,2 hPa 0,0 l/m 0 min 0 min 0 W/m 12,6 km/h (3 Bft)
27.07.2015 04:30 14,2 C 12,8 C 96 % 2 lf 1000,2 hPa 0,0 l/m 0 min 0 min 0 W/m 10,5 km/h (2 Bft)
27.07.2015 04:32 14,2 C 12,8 C 96 % 2 lf 1000,2 hPa 0,0 l/m 0 min 0 min 0 W/m 14,6 km/h (3 Bft)
27.07.2015 04:34 14,2 C 12,8 C 96 % 2 lf 1000,1 hPa 0,0 l/m 0 min 0 min 0 W/m 14,6 km/h (3 Bft)
27.07.2015 04:36 14,2 C 12,8 C 96 % 1 lf 1000,1 hPa 0,0 l/m 0 min 0 min 0 W/m 12,6 km/h (3 Bft)
27.07.2015 04:38 14,2 C 12,8 C 96 % 1 lf 1000,2 hPa 0,0 l/m 0 min 0 min 0 W/m 14,6 km/h (3 Bft)
27.07.2015 04:40 14,2 C 12,8 C 96 % 15 lf 1000,2 hPa 0,2 l/m 0 min 2 min 0 W/m 18,8 km/h (3 Bft)
27.07.2015 04:42 14,2 C 12,8 C 96 % 15 lf 1000,1 hPa 0,0 l/m 0 min 2 min 0 W/m 12,6 km/h (3 Bft)
27.07.2015 04:44 14,2 C 12,8 C 96 % 15 lf 1000,2 hPa 0,0 l/m 0 min 2 min 0 W/m 16,7 km/h (3 Bft)
27.07.2015 04:46 14,3 C 12,8 C 96 % 15 lf 1000,2 hPa 0,0 l/m 0 min 0 min 0 W/m 20,9 km/h (4 Bft)
27.07.2015 04:48 14,3 C 12,8 C 96 % 15 lf 1000,1 hPa 0,0 l/m 0 min 2 min 0 W/m 18,8 km/h (3 Bft)
27.07.2015 04:50 14,3 C 12,8 C 96 % 15 lf 1000,1 hPa 0,0 l/m 0 min 2 min 0 W/m 25,1 km/h (4 Bft)
27.07.2015 04:52 14,3 C 12,8 C 96 % 15 lf 1000,0 hPa 0,0 l/m 0 min 2 min 0 W/m 14,6 km/h (3 Bft)
27.07.2015 04:54 14,3 C 12,8 C 96 % 15 lf 1000,1 hPa 0,0 l/m 0 min 2 min 0 W/m 16,7 km/h (3 Bft)
27.07.2015 04:56 14,3 C 12,8 C 96 % 15 lf 1000,0 hPa 0,2 l/m 0 min 2 min 0 W/m 14,6 km/h (3 Bft)
27.07.2015 04:58 14,3 C 12,8 C 96 % 15 lf 1000,0 hPa 0,0 l/m 0 min 2 min 0 W/m 14,6 km/h (3 Bft)
27.07.2015 05:00 14,3 C 12,8 C 96 % 15 lf 1000,0 hPa 0,0 l/m 0 min 2 min 0 W/m 10,5 km/h (2 Bft)
27.07.2015 05:02 14,4 C 12,8 C 96 % 15 lf 1000,1 hPa 0,0 l/m 0 min 2 min 0 W/m 18,8 km/h (3 Bft)
27.07.2015 05:04 14,4 C 12,8 C 96 % 15 lf 1000,1 hPa 0,0 l/m 0 min 0 min 0 W/m 14,6 km/h (3 Bft)
27.07.2015 05:06 14,4 C 12,8 C 96 % 15 lf 1000,1 hPa 0,0 l/m 0 min 0 min 0 W/m 10,5 km/h (2 Bft)
27.07.2015 05:08 14,4 C 12,8 C 96 % 15 lf 1000,1 hPa 0,0 l/m 0 min 0 min 0 W/m 14,6 km/h (3 Bft)
27.07.2015 05:10 14,4 C 12,8 C 96 % 15 lf 1000,0 hPa 0,0 l/m 0 min 0 min 0 W/m 20,9 km/h (4 Bft)
27.07.2015 05:12 14,4 C 12,8 C 96 % 15 lf 1000,1 hPa 0,0 l/m 0 min 0 min 0 W/m 14,6 km/h (3 Bft)
27.07.2015 05:14 14,4 C 12,8 C 96 % 15 lf 1000,0 hPa 0,0 l/m 0 min 0 min 0 W/m 14,6 km/h (3 Bft)
27.07.2015 05:16 14,4 C 12,8 C 96 % 15 lf 1000,0 hPa 0,0 l/m 0 min 0 min 0 W/m 16,7 km/h (3 Bft)
27.07.2015 05:18 14,4 C 12,8 C 96 % 15 lf 1000,0 hPa 0,0 l/m 0 min 0 min 0 W/m 14,6 km/h (3 Bft)
27.07.2015 05:20 14,4 C 12,8 C 96 % 15 lf 1000,0 hPa 0,0 l/m 0 min 0 min 0 W/m 12,6 km/h (3 Bft)
27.07.2015 05:22 14,4 C 12,8 C 96 % 15 lf 1000,1 hPa 0,0 l/m 0 min 0 min 0 W/m 14,6 km/h (3 Bft)
27.07.2015 05:24 14,4 C 12,8 C 96 % 15 lf 1000,0 hPa 0,0 l/m 0 min 0 min 0 W/m 10,5 km/h (2 Bft)
27.07.2015 05:26 14,4 C 12,8 C 96 % 15 lf 1000,1 hPa 0,0 l/m 0 min 0 min 0 W/m 12,6 km/h (3 Bft)
27.07.2015 05:28 14,4 C 12,8 C 96 % 15 lf 1000,0 hPa 0,0 l/m 0 min 0 min 0 W/m 14,6 km/h (3 Bft)
27.07.2015 05:30 14,4 C 12,8 C 96 % 15 lf 1000,1 hPa 0,0 l/m 0 min 0 min 0 W/m 14,6 km/h (3 Bft)
27.07.2015 05:32 14,4 C 12,8 C 96 % 15 lf 1000,0 hPa 0,0 l/m 0 min 0 min 0 W/m 14,6 km/h (3 Bft)
27.07.2015 05:34 14,4 C 12,8 C 96 % 15 lf 1000,0 hPa 0,0 l/m 0 min 2 min 0 W/m 18,8 km/h (3 Bft)
27.07.2015 05:36 14,4 C 12,8 C 96 % 15 lf 1000,0 hPa 0,0 l/m 0 min 2 min 0 W/m 10,5 km/h (2 Bft)
27.07.2015 05:38 14,4 C 12,8 C 96 % 15 lf 1000,0 hPa 0,0 l/m 0 min 2 min 0 W/m 14,6 km/h (3 Bft)
27.07.2015 05:40 14,4 C 12,8 C 96 % 15 lf 1000,1 hPa 0,0 l/m 0 min 2 min 0 W/m 12,6 km/h (3 Bft)
27.07.2015 05:42 14,4 C 12,8 C 96 % 15 lf 1000,0 hPa 0,0 l/m 0 min 2 min 0 W/m 10,5 km/h (2 Bft)
27.07.2015 05:44 14,4 C 12,8 C 96 % 15 lf 1000,1 hPa 0,2 l/m 0 min 2 min 0 W/m 14,6 km/h (3 Bft)
27.07.2015 05:46 14,4 C 12,8 C 96 % 15 lf 1000,1 hPa 0,0 l/m 0 min 2 min 0 W/m 14,6 km/h (3 Bft)
27.07.2015 05:48 14,4 C 12,8 C 96 % 15 lf 1000,1 hPa 0,0 l/m 0 min 0 min 0 W/m 12,6 km/h (3 Bft)
27.07.2015 05:50 14,4 C 12,8 C 96 % 15 lf 1000,1 hPa 0,0 l/m 0 min 0 min 0 W/m 14,6 km/h (3 Bft)
27.07.2015 05:52 14,4 C 12,8 C 96 % 15 lf 1000,1 hPa 0,0 l/m 0 min 0 min 0 W/m 10,5 km/h (2 Bft)
27.07.2015 05:54 14,4 C 12,8 C 96 % 15 lf 1000,1 hPa 0,0 l/m 0 min 0 min 1 W/m 18,8 km/h (3 Bft)
27.07.2015 05:56 14,4 C 12,8 C 96 % 15 lf 1000,0 hPa 0,0 l/m 0 min 0 min 5 W/m 10,5 km/h (2 Bft)
27.07.2015 05:58 14,4 C 12,8 C 96 % 15 lf 1000,1 hPa 0,0 l/m 0 min 0 min 5 W/m 8,4 km/h (2 Bft)
27.07.2015 06:00 14,4 C 13,3 C 96 % 15 lf 1000,0 hPa 0,0 l/m 0 min 0 min 5 W/m 14,6 km/h (3 Bft)
27.07.2015 06:02 14,5 C 13,3 C 96 % 15 lf 1000,0 hPa 0,0 l/m 0 min 0 min 5 W/m 18,8 km/h (3 Bft)
27.07.2015 06:05 14,4 C 13,3 C 96 % 15 lf 1000,0 hPa 0,0 l/m 0 min 0 min 5 W/m 14,6 km/h (3 Bft)
27.07.2015 06:10 14,5 C 13,3 C 97 % 15 lf 1000,0 hPa 0,0 l/m 0 min 0 min 7 W/m 14,6 km/h (3 Bft)
27.07.2015 06:12 14,5 C 13,3 C 97 % 15 lf 1000,0 hPa 0,0 l/m 0 min 0 min 7 W/m 18,8 km/h (3 Bft)
27.07.2015 06:14 14,5 C 13,3 C 97 % 15 lf 1000,0 hPa 0,0 l/m 0 min 0 min 9 W/m 12,6 km/h (3 Bft)
27.07.2015 06:16 14,5 C 12,8 C 97 % 15 lf 1000,0 hPa 0,0 l/m 0 min 0 min 11 W/m 16,7 km/h (3 Bft)
27.07.2015 06:18 14,5 C 12,8 C 97 % 15 lf 1000,0 hPa 0,0 l/m 0 min 0 min 11 W/m 14,6 km/h (3 Bft)
27.07.2015 06:20 14,5 C 12,8 C 97 % 15 lf 999,9 hPa 0,0 l/m 0 min 0 min 12 W/m 14,6 km/h (3 Bft)
27.07.2015 06:22 14,5 C 12,8 C 97 % 15 lf 1000,0 hPa 0,0 l/m 0 min 0 min 12 W/m 14,6 km/h (3 Bft)
27.07.2015 06:24 14,5 C 12,8 C 97 % 15 lf 1000,0 hPa 0,0 l/m 0 min 0 min 12 W/m 10,5 km/h (2 Bft)
27.07.2015 06:26 14,5 C 12,8 C 97 % 15 lf 1000,0 hPa 0,0 l/m 0 min 0 min 13 W/m 10,5 km/h (2 Bft)
27.07.2015 06:28 14,5 C 12,8 C 97 % 15 lf 1000,0 hPa 0,0 l/m 0 min 0 min 14 W/m 16,7 km/h (3 Bft)
27.07.2015 06:30 14,5 C 12,8 C 97 % 15 lf 1000,0 hPa 0,0 l/m 0 min 0 min 16 W/m 12,6 km/h (3 Bft)
27.07.2015 06:32 14,5 C 12,8 C 97 % 15 lf 1000,0 hPa 0,0 l/m 0 min 0 min 17 W/m 12,6 km/h (3 Bft)
27.07.2015 06:34 14,5 C 12,8 C 97 % 15 lf 1000,0 hPa 0,0 l/m 0 min 0 min 19 W/m 14,6 km/h (3 Bft)
27.07.2015 06:36 14,5 C 13,3 C 97 % 15 lf 1000,0 hPa 0,0 l/m 0 min 0 min 19 W/m 16,7 km/h (3 Bft)
27.07.2015 06:38 14,5 C 13,3 C 97 % 15 lf 1000,0 hPa 0,0 l/m 0 min 0 min 23 W/m 10,5 km/h (2 Bft)
27.07.2015 06:40 14,5 C 13,3 C 97 % 15 lf 1000,0 hPa 0,0 l/m 0 min 0 min 28 W/m 14,6 km/h (3 Bft)
27.07.2015 06:42 14,5 C 13,3 C 97 % 15 lf 1000,0 hPa 0,0 l/m 0 min 0 min 43 W/m 12,6 km/h (3 Bft)
27.07.2015 06:44 14,5 C 13,3 C 97 % 15 lf 1000,0 hPa 0,0 l/m 2 min 0 min 56 W/m 16,7 km/h (3 Bft)
27.07.2015 06:46 14,6 C 13,3 C 97 % 15 lf 1000,0 hPa 0,0 l/m 0 min 0 min 47 W/m 14,6 km/h (3 Bft)
27.07.2015 06:48 14,6 C 13,3 C 97 % 15 lf 1000,0 hPa 0,0 l/m 0 min 0 min 42 W/m 14,6 km/h (3 Bft)
27.07.2015 06:50 14,6 C 13,3 C 97 % 15 lf 1000,0 hPa 0,0 l/m 0 min 0 min 28 W/m 12,6 km/h (3 Bft)
27.07.2015 06:52 14,6 C 13,3 C 97 % 15 lf 1000,0 hPa 0,0 l/m 0 min 0 min 26 W/m 12,6 km/h (3 Bft)
27.07.2015 06:54 14,6 C 13,3 C 97 % 15 lf 1000,0 hPa 0,0 l/m 0 min 0 min 28 W/m 16,7 km/h (3 Bft)
27.07.2015 06:56 14,6 C 13,3 C 97 % 15 lf 1000,0 hPa 0,0 l/m 0 min 0 min 35 W/m 16,7 km/h (3 Bft)
27.07.2015 06:58 14,6 C 13,3 C 97 % 15 lf 1000,0 hPa 0,0 l/m 0 min 0 min 37 W/m 18,8 km/h (3 Bft)
27.07.2015 07:00 14,7 C 13,3 C 97 % 15 lf 1000,0 hPa 0,0 l/m 0 min 0 min 29 W/m 10,5 km/h (2 Bft)
27.07.2015 07:02 14,7 C 13,3 C 97 % 15 lf 999,9 hPa 0,0 l/m 0 min 0 min 21 W/m 10,5 km/h (2 Bft)
27.07.2015 07:04 14,7 C 13,3 C 97 % 15 lf 1000,0 hPa 0,0 l/m 0 min 0 min 21 W/m 10,5 km/h (2 Bft)
27.07.2015 07:06 14,7 C 13,3 C 97 % 15 lf 1000,0 hPa 0,0 l/m 0 min 0 min 33 W/m 14,6 km/h (3 Bft)
27.07.2015 07:08 14,7 C 13,3 C 97 % 15 lf 1000,0 hPa 0,0 l/m 0 min 0 min 43 W/m 14,6 km/h (3 Bft)
27.07.2015 07:10 14,7 C 13,3 C 97 % 15 lf 1000,0 hPa 0,0 l/m 0 min 0 min 45 W/m 14,6 km/h (3 Bft)
27.07.2015 07:12 14,7 C 13,3 C 97 % 15 lf 1000,0 hPa 0,0 l/m 0 min 0 min 51 W/m 16,7 km/h (3 Bft)
27.07.2015 07:14 14,7 C 13,3 C 97 % 15 lf 1000,0 hPa 0,0 l/m 0 min 0 min 55 W/m 10,5 km/h (2 Bft)
27.07.2015 07:16 14,8 C 13,3 C 97 % 15 lf 999,9 hPa 0,0 l/m 0 min 0 min 62 W/m 27,2 km/h (4 Bft)
27.07.2015 07:18 14,8 C 13,3 C 97 % 15 lf 1000,0 hPa 0,0 l/m 0 min 0 min 66 W/m 23,0 km/h (4 Bft)
27.07.2015 07:20 14,8 C 13,3 C 97 % 15 lf 1000,0 hPa 0,0 l/m 0 min 0 min 64 W/m 14,6 km/h (3 Bft)
27.07.2015 07:22 14,8 C 13,3 C 97 % 15 lf 1000,0 hPa 0,0 l/m 0 min 0 min 53 W/m 20,9 km/h (4 Bft)
27.07.2015 07:24 14,8 C 13,3 C 97 % 15 lf 1000,0 hPa 0,0 l/m 0 min 0 min 54 W/m 12,6 km/h (3 Bft)
27.07.2015 07:26 14,8 C 13,9 C 97 % 15 lf 999,9 hPa 0,0 l/m 0 min 0 min 64 W/m 12,6 km/h (3 Bft)
27.07.2015 07:28 14,8 C 13,9 C 97 % 15 lf 999,9 hPa 0,0 l/m 0 min 0 min 72 W/m 12,6 km/h (3 Bft)
27.07.2015 07:30 14,9 C 13,9 C 97 % 15 lf 999,9 hPa 0,0 l/m 0 min 0 min 73 W/m 10,5 km/h (2 Bft)
27.07.2015 07:32 14,9 C 13,9 C 97 % 14 lf 999,9 hPa 0,0 l/m 0 min 0 min 75 W/m 18,8 km/h (3 Bft)
27.07.2015 07:34 14,9 C 13,9 C 97 % 14 lf 999,9 hPa 0,0 l/m 0 min 0 min 72 W/m 12,6 km/h (3 Bft)
27.07.2015 07:36 14,9 C 13,9 C 97 % 13 lf 999,9 hPa 0,0 l/m 0 min 0 min 66 W/m 12,6 km/h (3 Bft)
27.07.2015 07:38 14,9 C 13,9 C 97 % 12 lf 999,9 hPa 0,0 l/m 0 min 0 min 64 W/m 20,9 km/h (4 Bft)
27.07.2015 07:40 15,0 C 13,9 C 97 % 11 lf 999,9 hPa 0,0 l/m 0 min 0 min 65 W/m 12,6 km/h (3 Bft)
27.07.2015 07:42 15,0 C 13,9 C 97 % 10 lf 1000,0 hPa 0,0 l/m 0 min 0 min 75 W/m 16,7 km/h (3 Bft)
27.07.2015 07:44 15,0 C 13,9 C 97 % 7 lf 999,9 hPa 0,0 l/m 0 min 0 min 80 W/m 16,7 km/h (3 Bft)
27.07.2015 07:46 15,1 C 13,9 C 97 % 4 lf 999,9 hPa 0,0 l/m 0 min 0 min 67 W/m 16,7 km/h (3 Bft)
27.07.2015 07:48 15,1 C 13,9 C 97 % 4 lf 999,9 hPa 0,0 l/m 0 min 0 min 63 W/m 12,6 km/h (3 Bft)
27.07.2015 07:50 15,1 C 13,9 C 97 % 3 lf 1000,0 hPa 0,0 l/m 0 min 0 min 62 W/m 14,6 km/h (3 Bft)
27.07.2015 07:52 15,1 C 13,9 C 97 % 3 lf 999,9 hPa 0,0 l/m 0 min 0 min 52 W/m 16,7 km/h (3 Bft)
27.07.2015 07:54 15,1 C 13,9 C 97 % 15 lf 999,9 hPa 0,0 l/m 0 min 0 min 46 W/m 20,9 km/h (4 Bft)
27.07.2015 07:56 15,1 C 13,9 C 97 % 15 lf 999,9 hPa 0,0 l/m 0 min 2 min 56 W/m 29,3 km/h (5 Bft)
27.07.2015 07:58 15,1 C 13,9 C 97 % 15 lf 999,8 hPa 0,0 l/m 0 min 2 min 75 W/m 23,0 km/h (4 Bft)
27.07.2015 08:00 15,1 C 13,9 C 97 % 15 lf 999,9 hPa 0,0 l/m 0 min 0 min 80 W/m 14,6 km/h (3 Bft)
27.07.2015 08:02 15,1 C 13,9 C 97 % 15 lf 1000,0 hPa 0,0 l/m 0 min 0 min 81 W/m 18,8 km/h (3 Bft)
27.07.2015 08:04 15,1 C 13,9 C 97 % 15 lf 1000,0 hPa 0,0 l/m 0 min 0 min 86 W/m 14,6 km/h (3 Bft)
27.07.2015 08:06 15,2 C 13,9 C 97 % 15 lf 999,9 hPa 0,0 l/m 0 min 0 min 75 W/m 12,6 km/h (3 Bft)
27.07.2015 08:08 15,2 C 13,9 C 97 % 15 lf 1000,0 hPa 0,0 l/m 0 min 0 min 57 W/m 14,6 km/h (3 Bft)
27.07.2015 08:10 15,2 C 13,9 C 97 % 15 lf 999,9 hPa 0,0 l/m 0 min 0 min 52 W/m 27,2 km/h (4 Bft)
27.07.2015 08:12 15,2 C 13,9 C 97 % 15 lf 999,9 hPa 0,0 l/m 0 min 0 min 51 W/m 18,8 km/h (3 Bft)
27.07.2015 08:14 15,2 C 13,9 C 97 % 15 lf 999,9 hPa 0,0 l/m 0 min 0 min 63 W/m 14,6 km/h (3 Bft)
27.07.2015 08:16 15,2 C 13,9 C 97 % 15 lf 1000,0 hPa 0,0 l/m 0 min 0 min 80 W/m 23,0 km/h (4 Bft)
27.07.2015 08:18 15,2 C 13,9 C 97 % 15 lf 1000,0 hPa 0,0 l/m 0 min 0 min 88 W/m 16,7 km/h (3 Bft)
27.07.2015 08:20 15,2 C 13,9 C 97 % 15 lf 1000,0 hPa 0,0 l/m 0 min 0 min 90 W/m 12,6 km/h (3 Bft)
27.07.2015 08:22 15,2 C 13,9 C 97 % 15 lf 1000,0 hPa 0,0 l/m 0 min 0 min 83 W/m 16,7 km/h (3 Bft)
27.07.2015 08:24 15,2 C 13,9 C 97 % 15 lf 1000,0 hPa 0,0 l/m 0 min 0 min 82 W/m 16,7 km/h (3 Bft)
27.07.2015 08:26 15,3 C 13,9 C 97 % 15 lf 1000,0 hPa 0,0 l/m 0 min 0 min 93 W/m 14,6 km/h (3 Bft)
27.07.2015 08:28 15,3 C 13,9 C 97 % 14 lf 999,9 hPa 0,0 l/m 0 min 0 min 104 W/m 25,1 km/h (4 Bft)
27.07.2015 08:30 15,3 C 13,9 C 97 % 11 lf 1000,0 hPa 0,0 l/m 0 min 0 min 113 W/m 23,0 km/h (4 Bft)
27.07.2015 08:32 15,3 C 13,9 C 97 % 7 lf 999,9 hPa 0,0 l/m 0 min 0 min 123 W/m 14,6 km/h (3 Bft)
27.07.2015 08:34 15,3 C 13,9 C 97 % 3 lf 1000,0 hPa 0,0 l/m 0 min 0 min 134 W/m 27,2 km/h (4 Bft)
27.07.2015 08:36 15,4 C 13,9 C 97 % 1 lf 1000,0 hPa 0,0 l/m 0 min 0 min 141 W/m 20,9 km/h (4 Bft)
27.07.2015 08:38 15,4 C 13,9 C 97 % 1 lf 999,8 hPa 0,0 l/m 0 min 0 min 148 W/m 16,7 km/h (3 Bft)
27.07.2015 08:40 15,4 C 13,9 C 97 % 1 lf 999,9 hPa 0,0 l/m 0 min 0 min 155 W/m 25,1 km/h (4 Bft)
27.07.2015 08:42 15,4 C 14,4 C 97 % 1 lf 999,9 hPa 0,0 l/m 0 min 0 min 154 W/m 20,9 km/h (4 Bft)
27.07.2015 08:44 15,4 C 13,9 C 97 % 0 lf 1000,0 hPa 0,0 l/m 0 min 0 min 145 W/m 25,1 km/h (4 Bft)
27.07.2015 08:46 15,5 C 13,9 C 97 % 0 lf 1000,0 hPa 0,0 l/m 0 min 0 min 138 W/m 20,9 km/h (4 Bft)
27.07.2015 08:48 15,5 C 13,9 C 97 % 0 lf 999,9 hPa 0,0 l/m 0 min 0 min 134 W/m 27,2 km/h (4 Bft)
27.07.2015 08:50 15,5 C 13,9 C 97 % 0 lf 999,9 hPa 0,0 l/m 0 min 0 min 131 W/m 23,0 km/h (4 Bft)
27.07.2015 08:52 15,5 C 13,9 C 97 % 0 lf 999,9 hPa 0,0 l/m 0 min 0 min 125 W/m 20,9 km/h (4 Bft)
27.07.2015 08:54 15,6 C 13,9 C 97 % 0 lf 999,9 hPa 0,0 l/m 0 min 0 min 114 W/m 31,4 km/h (5 Bft)
27.07.2015 08:56 15,6 C 13,9 C 96 % 0 lf 999,9 hPa 0,0 l/m 0 min 0 min 104 W/m 18,8 km/h (3 Bft)
27.07.2015 08:58 15,6 C 13,9 C 96 % 0 lf 999,9 hPa 0,0 l/m 0 min 0 min 108 W/m 16,7 km/h (3 Bft)
27.07.2015 09:00 15,6 C 13,9 C 96 % 0 lf 999,9 hPa 0,0 l/m 0 min 0 min 106 W/m 23,0 km/h (4 Bft)
27.07.2015 09:02 15,6 C 13,9 C 96 % 0 lf 999,9 hPa 0,0 l/m 0 min 0 min 108 W/m 25,1 km/h (4 Bft)
27.07.2015 09:04 15,6 C 13,9 C 96 % 0 lf 1000,0 hPa 0,0 l/m 0 min 0 min 98 W/m 29,3 km/h (5 Bft)
27.07.2015 09:06 15,7 C 13,9 C 96 % 0 lf 1000,0 hPa 0,0 l/m 0 min 0 min 92 W/m 23,0 km/h (4 Bft)
27.07.2015 09:08 15,7 C 13,9 C 96 % 0 lf 1000,0 hPa 0,0 l/m 0 min 0 min 91 W/m 27,2 km/h (4 Bft)
27.07.2015 09:10 15,7 C 13,9 C 96 % 0 lf 1000,0 hPa 0,0 l/m 0 min 0 min 106 W/m 14,6 km/h (3 Bft)
27.07.2015 09:12 15,7 C 13,9 C 96 % 0 lf 1000,0 hPa 0,0 l/m 0 min 0 min 104 W/m 29,3 km/h (5 Bft)
27.07.2015 09:14 15,7 C 13,9 C 96 % 0 lf 1000,0 hPa 0,0 l/m 0 min 0 min 116 W/m 25,1 km/h (4 Bft)
27.07.2015 09:16 15,7 C 13,9 C 95 % 0 lf 1000,0 hPa 0,0 l/m 0 min 0 min 115 W/m 25,1 km/h (4 Bft)
27.07.2015 09:18 15,7 C 13,9 C 95 % 0 lf 1000,0 hPa 0,0 l/m 0 min 0 min 144 W/m 16,7 km/h (3 Bft)
27.07.2015 09:20 15,8 C 14,4 C 95 % 0 lf 1000,0 hPa 0,0 l/m 0 min 0 min 137 W/m 20,9 km/h (4 Bft)
27.07.2015 09:22 15,8 C 14,4 C 95 % 0 lf 1000,0 hPa 0,0 l/m 0 min 0 min 130 W/m 20,9 km/h (4 Bft)
27.07.2015 09:24 15,9 C 14,4 C 95 % 0 lf 1000,0 hPa 0,0 l/m 0 min 0 min 195 W/m 20,9 km/h (4 Bft)
27.07.2015 09:26 15,9 C 14,4 C 95 % 0 lf 1000,0 hPa 0,0 l/m 2 min 0 min 282 W/m 23,0 km/h (4 Bft)
27.07.2015 09:28 15,9 C 14,4 C 95 % 0 lf 1000,0 hPa 0,0 l/m 0 min 0 min 195 W/m 23,0 km/h (4 Bft)
27.07.2015 09:30 16,0 C 14,4 C 94 % 0 lf 1000,0 hPa 0,0 l/m 0 min 0 min 225 W/m 23,0 km/h (4 Bft)
27.07.2015 09:32 16,1 C 14,4 C 94 % 0 lf 1000,1 hPa 0,0 l/m 0 min 0 min 192 W/m 31,4 km/h (5 Bft)
27.07.2015 09:34 16,1 C 14,4 C 94 % 0 lf 1000,0 hPa 0,0 l/m 0 min 0 min 126 W/m 20,9 km/h (4 Bft)
27.07.2015 09:36 16,1 C 14,4 C 94 % 0 lf 1000,0 hPa 0,0 l/m 0 min 0 min 117 W/m 25,1 km/h (4 Bft)
27.07.2015 09:38 16,2 C 14,4 C 93 % 0 lf 1000,0 hPa 0,0 l/m 0 min 0 min 137 W/m 25,1 km/h (4 Bft)
27.07.2015 09:40 16,2 C 14,4 C 93 % 0 lf 1000,0 hPa 0,0 l/m 0 min 0 min 117 W/m 18,8 km/h (3 Bft)
27.07.2015 09:42 16,2 C 13,9 C 93 % 0 lf 1000,0 hPa 0,0 l/m 0 min 0 min 104 W/m 27,2 km/h (4 Bft)
27.07.2015 09:44 16,2 C 13,9 C 92 % 0 lf 1000,1 hPa 0,0 l/m 0 min 0 min 124 W/m 27,2 km/h (4 Bft)
27.07.2015 09:46 16,2 C 13,9 C 92 % 0 lf 1000,1 hPa 0,0 l/m 0 min 0 min 170 W/m 31,4 km/h (5 Bft)
27.07.2015 09:48 16,2 C 14,4 C 92 % 0 lf 1000,2 hPa 0,0 l/m 0 min 0 min 171 W/m 18,8 km/h (3 Bft)
27.07.2015 09:50 16,3 C 14,4 C 91 % 0 lf 1000,1 hPa 0,0 l/m 0 min 0 min 172 W/m 23,0 km/h (4 Bft)
27.07.2015 09:52 16,3 C 14,4 C 91 % 0 lf 1000,1 hPa 0,0 l/m 0 min 0 min 185 W/m 25,1 km/h (4 Bft)
27.07.2015 09:54 16,4 C 14,4 C 91 % 0 lf 1000,2 hPa 0,0 l/m 0 min 0 min 157 W/m 23,0 km/h (4 Bft)
27.07.2015 09:56 16,4 C 14,4 C 91 % 0 lf 1000,2 hPa 0,0 l/m 0 min 0 min 125 W/m 27,2 km/h (4 Bft)
27.07.2015 09:58 16,4 C 13,9 C 91 % 0 lf 1000,2 hPa 0,0 l/m 0 min 0 min 114 W/m 31,4 km/h (5 Bft)
27.07.2015 10:00 16,4 C 13,9 C 91 % 0 lf 1000,2 hPa 0,0 l/m 0 min 0 min 104 W/m 27,2 km/h (4 Bft)
27.07.2015 10:02 16,4 C 13,9 C 90 % 0 lf 1000,1 hPa 0,0 l/m 0 min 0 min 119 W/m 25,1 km/h (4 Bft)
27.07.2015 10:04 16,4 C 13,9 C 90 % 0 lf 1000,2 hPa 0,0 l/m 0 min 0 min 128 W/m 27,2 km/h (4 Bft)
27.07.2015 10:06 16,4 C 14,4 C 90 % 0 lf 1000,2 hPa 0,0 l/m 0 min 0 min 136 W/m 23,0 km/h (4 Bft)
27.07.2015 10:08 16,4 C 14,4 C 90 % 0 lf 1000,2 hPa 0,0 l/m 0 min 0 min 161 W/m 23,0 km/h (4 Bft)
27.07.2015 10:10 16,4 C 14,4 C 90 % 0 lf 1000,2 hPa 0,0 l/m 0 min 0 min 143 W/m 27,2 km/h (4 Bft)
27.07.2015 10:12 16,4 C 14,4 C 89 % 0 lf 1000,2 hPa 0,0 l/m 0 min 0 min 188 W/m 20,9 km/h (4 Bft)
27.07.2015 10:14 16,5 C 14,4 C 89 % 0 lf 1000,2 hPa 0,0 l/m 0 min 0 min 180 W/m 31,4 km/h (5 Bft)
27.07.2015 10:16 16,5 C 14,4 C 89 % 0 lf 1000,2 hPa 0,0 l/m 0 min 0 min 177 W/m 23,0 km/h (4 Bft)
27.07.2015 10:18 16,6 C 14,4 C 89 % 0 lf 1000,2 hPa 0,0 l/m 0 min 0 min 181 W/m 20,9 km/h (4 Bft)
27.07.2015 10:20 16,6 C 14,4 C 89 % 0 lf 1000,3 hPa 0,0 l/m 0 min 0 min 161 W/m 29,3 km/h (5 Bft)
27.07.2015 10:22 16,6 C 14,4 C 89 % 0 lf 1000,4 hPa 0,0 l/m 0 min 0 min 168 W/m 23,0 km/h (4 Bft)
27.07.2015 10:24 16,6 C 14,4 C 89 % 2 lf 1000,3 hPa 0,0 l/m 0 min 2 min 175 W/m 33,5 km/h (5 Bft)
27.07.2015 10:26 16,6 C 14,4 C 89 % 2 lf 1000,4 hPa 0,0 l/m 0 min 0 min 180 W/m 29,3 km/h (5 Bft)
27.07.2015 10:28 16,6 C 14,4 C 89 % 4 lf 1000,4 hPa 0,0 l/m 0 min 2 min 142 W/m 23,0 km/h (4 Bft)
27.07.2015 10:30 16,6 C 14,4 C 89 % 10 lf 1000,4 hPa 0,0 l/m 0 min 2 min 123 W/m 25,1 km/h (4 Bft)
27.07.2015 10:32 16,6 C 13,9 C 89 % 15 lf 1000,5 hPa 0,0 l/m 0 min 2 min 106 W/m 27,2 km/h (4 Bft)
27.07.2015 10:34 16,6 C 13,9 C 90 % 15 lf 1000,5 hPa 0,0 l/m 0 min 2 min 113 W/m 25,1 km/h (4 Bft)
27.07.2015 10:36 16,5 C 13,9 C 90 % 15 lf 1000,6 hPa 0,0 l/m 0 min 2 min 116 W/m 33,5 km/h (5 Bft)
27.07.2015 10:38 16,4 C 13,9 C 90 % 15 lf 1000,6 hPa 0,0 l/m 0 min 2 min 105 W/m 23,0 km/h (4 Bft)
27.07.2015 10:40 16,3 C 13,9 C 90 % 15 lf 1000,4 hPa 0,0 l/m 0 min 2 min 109 W/m 33,5 km/h (5 Bft)
27.07.2015 10:42 16,2 C 13,9 C 90 % 15 lf 1000,5 hPa 0,0 l/m 0 min 2 min 132 W/m 27,2 km/h (4 Bft)
27.07.2015 10:44 16,2 C 13,9 C 91 % 15 lf 1000,6 hPa 0,0 l/m 0 min 0 min 134 W/m 23,0 km/h (4 Bft)
27.07.2015 10:46 16,1 C 13,9 C 91 % 15 lf 1000,5 hPa 0,0 l/m 0 min 0 min 133 W/m 25,1 km/h (4 Bft)
27.07.2015 10:48 16,1 C 13,9 C 91 % 15 lf 1000,5 hPa 0,2 l/m 0 min 0 min 133 W/m 27,2 km/h (4 Bft)
27.07.2015 10:50 16,1 C 13,9 C 91 % 15 lf 1000,5 hPa 0,0 l/m 0 min 0 min 134 W/m 23,0 km/h (4 Bft)
27.07.2015 10:52 16,1 C 13,9 C 91 % 15 lf 1000,5 hPa 0,0 l/m 0 min 0 min 129 W/m 29,3 km/h (5 Bft)
27.07.2015 10:54 16,0 C 13,9 C 92 % 15 lf 1000,5 hPa 0,0 l/m 0 min 0 min 111 W/m 20,9 km/h (4 Bft)
27.07.2015 10:56 16,0 C 13,9 C 92 % 15 lf 1000,5 hPa 0,0 l/m 0 min 0 min 116 W/m 33,5 km/h (5 Bft)
27.07.2015 10:58 16,0 C 13,9 C 92 % 15 lf 1000,5 hPa 0,0 l/m 0 min 0 min 176 W/m 27,2 km/h (4 Bft)
27.07.2015 11:00 16,0 C 14,4 C 92 % 15 lf 1000,6 hPa 0,0 l/m 0 min 0 min 202 W/m 31,4 km/h (5 Bft)
27.07.2015 11:02 16,0 C 13,9 C 92 % 14 lf 1000,6 hPa 0,0 l/m 0 min 2 min 153 W/m 37,7 km/h (5 Bft)
27.07.2015 11:04 16,0 C 13,9 C 92 % 12 lf 1000,6 hPa 0,0 l/m 0 min 0 min 120 W/m 35,6 km/h (5 Bft)
27.07.2015 11:06 16,0 C 13,9 C 92 % 6 lf 1000,6 hPa 0,0 l/m 0 min 2 min 170 W/m 27,2 km/h (4 Bft)
27.07.2015 11:08 16,0 C 14,4 C 92 % 2 lf 1000,6 hPa 0,0 l/m 0 min 0 min 180 W/m 25,1 km/h (4 Bft)
27.07.2015 11:10 16,0 C 14,4 C 92 % 0 lf 1000,6 hPa 0,0 l/m 0 min 0 min 197 W/m 20,9 km/h (4 Bft)
27.07.2015 11:12 16,1 C 14,4 C 92 % 0 lf 1000,5 hPa 0,0 l/m 0 min 0 min 230 W/m 33,5 km/h (5 Bft)
27.07.2015 11:14 16,1 C 14,4 C 92 % 0 lf 1000,6 hPa 0,0 l/m 0 min 2 min 295 W/m 25,1 km/h (4 Bft)
27.07.2015 11:16 16,2 C 15,0 C 92 % 0 lf 1000,6 hPa 0,0 l/m 0 min 0 min 334 W/m 27,2 km/h (4 Bft)
27.07.2015 11:18 16,2 C 15,0 C 93 % 0 lf 1000,5 hPa 0,0 l/m 0 min 0 min 354 W/m 27,2 km/h (4 Bft)
27.07.2015 11:20 16,3 C 15,6 C 93 % 0 lf 1000,5 hPa 0,0 l/m 2 min 0 min 419 W/m 14,6 km/h (3 Bft)
27.07.2015 11:22 16,4 C 16,1 C 93 % 0 lf 1000,5 hPa 0,0 l/m 2 min 0 min 595 W/m 29,3 km/h (5 Bft)
27.07.2015 11:24 16,6 C 15,6 C 93 % 0 lf 1000,5 hPa 0,0 l/m 2 min 0 min 455 W/m 29,3 km/h (5 Bft)
27.07.2015 11:26 16,7 C 15,6 C 93 % 0 lf 1000,5 hPa 0,0 l/m 2 min 0 min 405 W/m 25,1 km/h (4 Bft)
27.07.2015 11:28 16,7 C 15,6 C 93 % 0 lf 1000,5 hPa 0,0 l/m 0 min 0 min 266 W/m 27,2 km/h (4 Bft)
27.07.2015 11:30 16,8 C 15,6 C 92 % 0 lf 1000,5 hPa 0,0 l/m 2 min 0 min 405 W/m 16,7 km/h (3 Bft)
27.07.2015 11:32 16,9 C 15,6 C 92 % 0 lf 1000,5 hPa 0,0 l/m 2 min 0 min 426 W/m 23,0 km/h (4 Bft)
27.07.2015 11:34 17,1 C 16,1 C 92 % 0 lf 1000,5 hPa 0,0 l/m 2 min 0 min 489 W/m 23,0 km/h (4 Bft)
27.07.2015 11:36 17,2 C 16,1 C 92 % 0 lf 1000,5 hPa 0,0 l/m 2 min 0 min 513 W/m 23,0 km/h (4 Bft)
27.07.2015 11:38 17,3 C 16,1 C 92 % 0 lf 1000,5 hPa 0,0 l/m 2 min 0 min 461 W/m 33,5 km/h (5 Bft)
27.07.2015 11:40 17,4 C 16,1 C 91 % 0 lf 1000,5 hPa 0,0 l/m 0 min 0 min 351 W/m 18,8 km/h (3 Bft)
27.07.2015 11:42 17,6 C 16,1 C 91 % 0 lf 1000,5 hPa 0,0 l/m 0 min 0 min 293 W/m 25,1 km/h (4 Bft)
27.07.2015 11:44 17,7 C 16,1 C 91 % 0 lf 1000,5 hPa 0,0 l/m 0 min 0 min 269 W/m 31,4 km/h (5 Bft)
27.07.2015 11:46 17,7 C 15,6 C 90 % 0 lf 1000,5 hPa 0,0 l/m 0 min 0 min 280 W/m 33,5 km/h (5 Bft)
27.07.2015 11:48 17,7 C 15,6 C 89 % 0 lf 1000,5 hPa 0,0 l/m 0 min 0 min 278 W/m 39,7 km/h (6 Bft)
27.07.2015 11:50 17,6 C 15,0 C 88 % 0 lf 1000,5 hPa 0,0 l/m 0 min 0 min 190 W/m 35,6 km/h (5 Bft)
27.07.2015 11:52 17,6 C 15,0 C 88 % 0 lf 1000,5 hPa 0,0 l/m 0 min 0 min 202 W/m 37,7 km/h (5 Bft)
27.07.2015 11:54 17,6 C 15,0 C 88 % 0 lf 1000,5 hPa 0,0 l/m 0 min 0 min 250 W/m 41,8 km/h (6 Bft)
27.07.2015 11:56 17,5 C 15,0 C 88 % 0 lf 1000,5 hPa 0,0 l/m 0 min 0 min 202 W/m 27,2 km/h (4 Bft)
27.07.2015 11:58 17,4 C 15,0 C 87 % 0 lf 1000,5 hPa 0,0 l/m 0 min 0 min 187 W/m 33,5 km/h (5 Bft)
27.07.2015 12:00 17,4 C 15,0 C 87 % 0 lf 1000,6 hPa 0,0 l/m 0 min 0 min 198 W/m 37,7 km/h (5 Bft)
27.07.2015 12:02 17,4 C 15,0 C 87 % 0 lf 1000,6 hPa 0,0 l/m 0 min 0 min 246 W/m 35,6 km/h (5 Bft)
27.07.2015 12:05 17,3 C 15,0 C 87 % 0 lf 1000,6 hPa 0,0 l/m 0 min 0 min 343 W/m 37,7 km/h (5 Bft)
27.07.2015 12:10 17,3 C 15,6 C 88 % 3 lf 1000,6 hPa 0,0 l/m 0 min 2 min 258 W/m 37,7 km/h (5 Bft)
27.07.2015 12:12 17,4 C 15,6 C 87 % 15 lf 1000,7 hPa 0,0 l/m 0 min 2 min 280 W/m 37,7 km/h (5 Bft)
27.07.2015 12:14 17,4 C 15,0 C 88 % 15 lf 1000,7 hPa 0,0 l/m 0 min 2 min 212 W/m 35,6 km/h (5 Bft)
27.07.2015 12:16 17,4 C 15,0 C 88 % 15 lf 1000,7 hPa 0,0 l/m 0 min 2 min 171 W/m 25,1 km/h (4 Bft)
27.07.2015 12:18 17,4 C 14,4 C 88 % 15 lf 1000,7 hPa 0,0 l/m 0 min 2 min 149 W/m 35,6 km/h (5 Bft)
27.07.2015 12:20 17,3 C 14,4 C 88 % 15 lf 1000,7 hPa 0,0 l/m 0 min 2 min 161 W/m 37,7 km/h (5 Bft)
27.07.2015 12:22 17,2 C 14,4 C 88 % 15 lf 1000,7 hPa 0,0 l/m 0 min 2 min 156 W/m 31,4 km/h (5 Bft)
27.07.2015 12:24 17,1 C 14,4 C 88 % 15 lf 1000,7 hPa 0,0 l/m 0 min 0 min 129 W/m 33,5 km/h (5 Bft)
27.07.2015 12:26 17,0 C 14,4 C 88 % 15 lf 1000,7 hPa 0,0 l/m 0 min 0 min 105 W/m 29,3 km/h (5 Bft)
27.07.2015 12:28 16,9 C 14,4 C 88 % 15 lf 1000,7 hPa 0,0 l/m 0 min 2 min 133 W/m 25,1 km/h (4 Bft)
27.07.2015 12:30 16,9 C 14,4 C 89 % 15 lf 1000,7 hPa 0,0 l/m 0 min 2 min 140 W/m 27,2 km/h (4 Bft)
27.07.2015 12:32 16,9 C 14,4 C 89 % 15 lf 1000,7 hPa 0,0 l/m 0 min 2 min 146 W/m 29,3 km/h (5 Bft)
27.07.2015 12:34 16,8 C 14,4 C 89 % 15 lf 1000,7 hPa 0,0 l/m 0 min 2 min 153 W/m 33,5 km/h (5 Bft)
27.07.2015 12:36 16,8 C 14,4 C 89 % 15 lf 1000,7 hPa 0,0 l/m 0 min 2 min 214 W/m 35,6 km/h (5 Bft)
27.07.2015 12:38 16,7 C 15,0 C 89 % 15 lf 1000,7 hPa 0,0 l/m 0 min 2 min 220 W/m 31,4 km/h (5 Bft)
27.07.2015 12:40 16,7 C 15,0 C 89 % 9 lf 1000,7 hPa 0,0 l/m 0 min 0 min 206 W/m 33,5 km/h (5 Bft)
27.07.2015 12:42 16,7 C 15,0 C 89 % 2 lf 1000,7 hPa 0,0 l/m 0 min 2 min 189 W/m 35,6 km/h (5 Bft)
27.07.2015 12:44 16,7 C 15,0 C 89 % 0 lf 1000,7 hPa 0,0 l/m 0 min 0 min 170 W/m 27,2 km/h (4 Bft)
27.07.2015 12:46 16,8 C 15,0 C 89 % 0 lf 1000,7 hPa 0,0 l/m 0 min 0 min 140 W/m 29,3 km/h (5 Bft)
27.07.2015 12:48 16,8 C 15,0 C 89 % 0 lf 1000,7 hPa 0,0 l/m 0 min 0 min 164 W/m 27,2 km/h (4 Bft)
27.07.2015 12:50 16,8 C 15,0 C 89 % 4 lf 1000,8 hPa 0,0 l/m 0 min 2 min 304 W/m 41,8 km/h (6 Bft)
27.07.2015 12:52 16,9 C 15,0 C 89 % 1 lf 1000,9 hPa 0,0 l/m 0 min 2 min 340 W/m 31,4 km/h (5 Bft)
27.07.2015 12:54 16,9 C 15,6 C 90 % 0 lf 1000,8 hPa 0,0 l/m 0 min 0 min 363 W/m 23,0 km/h (4 Bft)
27.07.2015 12:56 17,0 C 16,1 C 90 % 0 lf 1000,8 hPa 0,0 l/m 2 min 0 min 411 W/m 29,3 km/h (5 Bft)
27.07.2015 12:58 17,1 C 16,1 C 90 % 0 lf 1000,8 hPa 0,0 l/m 0 min 0 min 320 W/m 31,4 km/h (5 Bft)
27.07.2015 13:00 17,1 C 16,7 C 90 % 0 lf 1000,8 hPa 0,0 l/m 0 min 0 min 295 W/m 33,5 km/h (5 Bft)
27.07.2015 13:02 17,1 C 16,7 C 89 % 0 lf 1000,8 hPa 0,0 l/m 0 min 2 min 253 W/m 35,6 km/h (5 Bft)
27.07.2015 13:04 17,1 C 16,7 C 89 % 0 lf 1000,8 hPa 0,0 l/m 0 min 0 min 233 W/m 29,3 km/h (5 Bft)
27.07.2015 13:06 17,2 C 16,7 C 89 % 0 lf 1000,8 hPa 0,0 l/m 0 min 0 min 201 W/m 33,5 km/h (5 Bft)
27.07.2015 13:08 17,2 C 16,1 C 88 % 1 lf 1000,9 hPa 0,0 l/m 0 min 0 min 169 W/m 39,7 km/h (6 Bft)
27.07.2015 13:10 17,2 C 16,1 C 88 % 0 lf 1000,9 hPa 0,0 l/m 0 min 0 min 196 W/m 33,5 km/h (5 Bft)
27.07.2015 13:12 17,2 C 16,1 C 88 % 0 lf 1000,9 hPa 0,0 l/m 0 min 0 min 148 W/m 48,1 km/h (6 Bft)
27.07.2015 13:14 17,2 C 16,1 C 88 % 0 lf 1000,9 hPa 0,0 l/m 0 min 2 min 126 W/m 43,9 km/h (6 Bft)
27.07.2015 13:16 17,1 C 16,1 C 87 % 1 lf 1001,0 hPa 0,0 l/m 0 min 2 min 163 W/m 39,7 km/h (6 Bft)
27.07.2015 13:18 17,1 C 15,6 C 87 % 0 lf 1000,9 hPa 0,0 l/m 0 min 2 min 122 W/m 27,2 km/h (4 Bft)
27.07.2015 13:20 17,1 C 15,6 C 88 % 0 lf 1000,9 hPa 0,0 l/m 0 min 2 min 112 W/m 20,9 km/h (4 Bft)
27.07.2015 13:22 17,1 C 15,6 C 88 % 1 lf 1000,9 hPa 0,0 l/m 0 min 2 min 99 W/m 37,7 km/h (5 Bft)
27.07.2015 13:24 17,1 C 15,6 C 88 % 2 lf 1000,9 hPa 0,0 l/m 0 min 2 min 124 W/m 29,3 km/h (5 Bft)
27.07.2015 13:26 17,1 C 15,6 C 88 % 0 lf 1000,9 hPa 0,0 l/m 0 min 0 min 165 W/m 31,4 km/h (5 Bft)
27.07.2015 13:28 17,1 C 15,6 C 88 % 0 lf 1001,0 hPa 0,0 l/m 0 min 0 min 167 W/m 35,6 km/h (5 Bft)
27.07.2015 13:30 17,0 C 16,1 C 88 % 0 lf 1000,9 hPa 0,0 l/m 0 min 0 min 184 W/m 33,5 km/h (5 Bft)
27.07.2015 13:32 17,1 C 16,1 C 88 % 0 lf 1001,0 hPa 0,0 l/m 0 min 0 min 236 W/m 41,8 km/h (6 Bft)
27.07.2015 13:34 17,1 C 16,7 C 88 % 0 lf 1000,9 hPa 0,0 l/m 0 min 0 min 197 W/m 41,8 km/h (6 Bft)
27.07.2015 13:36 17,1 C 16,7 C 88 % 0 lf 1000,9 hPa 0,0 l/m 0 min 0 min 170 W/m 31,4 km/h (5 Bft)
27.07.2015 13:38 17,2 C 16,7 C 88 % 0 lf 1000,9 hPa 0,0 l/m 0 min 0 min 167 W/m 29,3 km/h (5 Bft)
27.07.2015 13:40 17,2 C 16,7 C 88 % 2 lf 1000,9 hPa 0,0 l/m 0 min 0 min 184 W/m 20,9 km/h (4 Bft)
27.07.2015 13:42 17,2 C 16,1 C 88 % 0 lf 1000,9 hPa 0,0 l/m 0 min 2 min 150 W/m 33,5 km/h (5 Bft)
27.07.2015 13:44 17,3 C 16,1 C 87 % 2 lf 1000,9 hPa 0,0 l/m 0 min 2 min 165 W/m 39,7 km/h (6 Bft)
27.07.2015 13:46 17,3 C 16,1 C 87 % 2 lf 1000,9 hPa 0,0 l/m 0 min 2 min 189 W/m 27,2 km/h (4 Bft)
27.07.2015 13:48 17,3 C 16,1 C 87 % 1 lf 1000,9 hPa 0,0 l/m 0 min 2 min 180 W/m 33,5 km/h (5 Bft)
27.07.2015 13:50 17,3 C 16,1 C 87 % 0 lf 1001,0 hPa 0,0 l/m 0 min 0 min 159 W/m 46,0 km/h (6 Bft)
27.07.2015 13:52 17,3 C 16,1 C 87 % 2 lf 1001,0 hPa 0,0 l/m 0 min 0 min 141 W/m 41,8 km/h (6 Bft)
27.07.2015 13:54 17,3 C 16,1 C 86 % 0 lf 1001,1 hPa 0,0 l/m 0 min 2 min 140 W/m 33,5 km/h (5 Bft)
27.07.2015 13:56 17,3 C 16,1 C 86 % 1 lf 1001,1 hPa 0,0 l/m 0 min 0 min 147 W/m 29,3 km/h (5 Bft)
27.07.2015 13:58 17,4 C 16,1 C 86 % 4 lf 1001,1 hPa 0,0 l/m 0 min 2 min 161 W/m 37,7 km/h (5 Bft)
27.07.2015 14:00 17,4 C 15,6 C 87 % 13 lf 1001,1 hPa 0,0 l/m 0 min 2 min 145 W/m 29,3 km/h (5 Bft)
27.07.2015 14:02 17,4 C 15,0 C 87 % 14 lf 1001,2 hPa 0,0 l/m 0 min 2 min 119 W/m 23,0 km/h (4 Bft)
27.07.2015 14:04 17,4 C 15,0 C 87 % 15 lf 1001,1 hPa 0,0 l/m 0 min 2 min 122 W/m 25,1 km/h (4 Bft)
27.07.2015 14:06 17,4 C 15,0 C 87 % 15 lf 1001,2 hPa 0,0 l/m 0 min 2 min 132 W/m 29,3 km/h (5 Bft)
27.07.2015 14:08 17,4 C 15,0 C 87 % 15 lf 1001,2 hPa 0,2 l/m 0 min 2 min 130 W/m 23,0 km/h (4 Bft)
27.07.2015 14:10 17,4 C 14,4 C 87 % 15 lf 1001,2 hPa 0,0 l/m 0 min 2 min 126 W/m 39,7 km/h (6 Bft)
27.07.2015 14:12 17,3 C 15,0 C 88 % 15 lf 1001,2 hPa 0,0 l/m 0 min 0 min 117 W/m 25,1 km/h (4 Bft)
27.07.2015 14:14 17,3 C 14,4 C 88 % 15 lf 1001,2 hPa 0,0 l/m 0 min 0 min 109 W/m 33,5 km/h (5 Bft)
27.07.2015 14:16 17,3 C 15,0 C 88 % 15 lf 1001,2 hPa 0,0 l/m 0 min 0 min 158 W/m 18,8 km/h (3 Bft)
27.07.2015 14:18 17,3 C 15,0 C 88 % 13 lf 1001,3 hPa 0,0 l/m 0 min 0 min 216 W/m 25,1 km/h (4 Bft)
27.07.2015 14:20 17,3 C 15,0 C 88 % 7 lf 1001,2 hPa 0,0 l/m 0 min 0 min 187 W/m 29,3 km/h (5 Bft)
27.07.2015 14:22 17,3 C 15,0 C 88 % 2 lf 1001,2 hPa 0,0 l/m 0 min 0 min 162 W/m 27,2 km/h (4 Bft)
27.07.2015 14:24 17,3 C 15,0 C 88 % 0 lf 1001,2 hPa 0,0 l/m 0 min 0 min 155 W/m 29,3 km/h (5 Bft)
27.07.2015 14:26 17,3 C 15,6 C 88 % 0 lf 1001,2 hPa 0,0 l/m 0 min 0 min 161 W/m 23,0 km/h (4 Bft)
27.07.2015 14:28 17,3 C 15,6 C 88 % 0 lf 1001,2 hPa 0,0 l/m 0 min 0 min 157 W/m 25,1 km/h (4 Bft)
27.07.2015 14:30 17,3 C 15,6 C 88 % 0 lf 1001,1 hPa 0,0 l/m 0 min 0 min 182 W/m 27,2 km/h (4 Bft)
27.07.2015 14:32 17,3 C 15,6 C 88 % 0 lf 1001,1 hPa 0,0 l/m 0 min 0 min 202 W/m 33,5 km/h (5 Bft)
27.07.2015 14:34 17,4 C 16,1 C 88 % 0 lf 1001,2 hPa 0,0 l/m 0 min 0 min 226 W/m 35,6 km/h (5 Bft)
27.07.2015 14:36 17,4 C 16,1 C 87 % 0 lf 1001,1 hPa 0,0 l/m 0 min 0 min 185 W/m 33,5 km/h (5 Bft)
27.07.2015 14:38 17,5 C 16,7 C 87 % 0 lf 1001,2 hPa 0,0 l/m 0 min 0 min 181 W/m 23,0 km/h (4 Bft)
27.07.2015 14:40 17,6 C 16,7 C 87 % 0 lf 1001,1 hPa 0,0 l/m 0 min 0 min 226 W/m 23,0 km/h (4 Bft)
27.07.2015 14:42 17,6 C 17,2 C 87 % 0 lf 1001,1 hPa 0,0 l/m 0 min 0 min 326 W/m 37,7 km/h (5 Bft)
27.07.2015 14:44 17,7 C 17,8 C 87 % 0 lf 1001,1 hPa 0,0 l/m 2 min 0 min 411 W/m 37,7 km/h (5 Bft)
27.07.2015 14:46 17,8 C 17,8 C 86 % 0 lf 1001,0 hPa 0,0 l/m 2 min 0 min 429 W/m 31,4 km/h (5 Bft)
27.07.2015 14:48 17,9 C 18,3 C 86 % 0 lf 1001,0 hPa 0,0 l/m 2 min 0 min 459 W/m 20,9 km/h (4 Bft)
27.07.2015 14:50 18,2 C 18,9 C 87 % 0 lf 1001,1 hPa 0,0 l/m 2 min 0 min 459 W/m 31,4 km/h (5 Bft)
27.07.2015 14:52 18,4 C 18,9 C 86 % 0 lf 1001,0 hPa 0,0 l/m 0 min 0 min 356 W/m 18,8 km/h (3 Bft)
27.07.2015 14:54 18,5 C 18,3 C 86 % 0 lf 1001,0 hPa 0,0 l/m 0 min 0 min 247 W/m 43,9 km/h (6 Bft)
27.07.2015 14:56 18,6 C 18,3 C 84 % 0 lf 1001,0 hPa 0,0 l/m 0 min 0 min 257 W/m 41,8 km/h (6 Bft)
27.07.2015 14:58 18,7 C 17,8 C 83 % 0 lf 1001,0 hPa 0,0 l/m 0 min 0 min 246 W/m 54,4 km/h (7 Bft)
27.07.2015 15:00 18,7 C 18,3 C 82 % 0 lf 1001,0 hPa 0,0 l/m 0 min 0 min 351 W/m 37,7 km/h (5 Bft)
27.07.2015 15:02 18,8 C 18,3 C 81 % 0 lf 1001,0 hPa 0,0 l/m 0 min 0 min 314 W/m 39,7 km/h (6 Bft)
27.07.2015 15:04 18,9 C 18,9 C 81 % 0 lf 1001,0 hPa 0,0 l/m 0 min 0 min 390 W/m 50,2 km/h (7 Bft)
27.07.2015 15:06 19,1 C 18,9 C 81 % 0 lf 1001,0 hPa 0,0 l/m 0 min 0 min 381 W/m 43,9 km/h (6 Bft)
27.07.2015 15:08 19,2 C 18,9 C 79 % 0 lf 1001,0 hPa 0,0 l/m 0 min 0 min 374 W/m 39,7 km/h (6 Bft)
27.07.2015 15:10 19,3 C 19,4 C 79 % 0 lf 1001,0 hPa 0,0 l/m 2 min 0 min 483 W/m 35,6 km/h (5 Bft)
27.07.2015 15:12 19,6 C 20,0 C 80 % 0 lf 1001,0 hPa 0,0 l/m 2 min 0 min 1027 W/m 39,7 km/h (6 Bft)
27.07.2015 15:14 19,8 C 20,0 C 79 % 0 lf 1001,1 hPa 0,0 l/m 2 min 0 min 1018 W/m 43,9 km/h (6 Bft)
27.07.2015 15:16 19,9 C 20,0 C 78 % 0 lf 1001,1 hPa 0,0 l/m 2 min 0 min 1018 W/m 33,5 km/h (5 Bft)
27.07.2015 15:18 20,1 C 19,4 C 78 % 0 lf 1001,1 hPa 0,0 l/m 2 min 0 min 467 W/m 41,8 km/h (6 Bft)
27.07.2015 15:20 20,1 C 19,4 C 77 % 0 lf 1001,1 hPa 0,0 l/m 0 min 0 min 243 W/m 43,9 km/h (6 Bft)
27.07.2015 15:22 20,1 C 18,9 C 76 % 0 lf 1001,1 hPa 0,0 l/m 0 min 0 min 213 W/m 31,4 km/h (5 Bft)
27.07.2015 15:24 20,0 C 18,3 C 76 % 0 lf 1001,2 hPa 0,0 l/m 0 min 0 min 213 W/m 31,4 km/h (5 Bft)
27.07.2015 15:26 19,9 C 18,3 C 76 % 0 lf 1001,1 hPa 0,0 l/m 0 min 0 min 225 W/m 29,3 km/h (5 Bft)
27.07.2015 15:28 19,9 C 18,3 C 76 % 0 lf 1001,1 hPa 0,0 l/m 0 min 0 min 260 W/m 39,7 km/h (6 Bft)
27.07.2015 15:30 19,9 C 18,3 C 76 % 0 lf 1001,1 hPa 0,0 l/m 0 min 0 min 322 W/m 31,4 km/h (5 Bft)
27.07.2015 15:32 19,9 C 18,9 C 77 % 0 lf 1001,2 hPa 0,0 l/m 0 min 0 min 314 W/m 29,3 km/h (5 Bft)
27.07.2015 15:34 19,9 C 18,9 C 76 % 0 lf 1001,1 hPa 0,0 l/m 2 min 0 min 397 W/m 39,7 km/h (6 Bft)
27.07.2015 15:36 19,9 C 19,4 C 76 % 0 lf 1001,2 hPa 0,0 l/m 2 min 0 min 520 W/m 46,0 km/h (6 Bft)
27.07.2015 15:38 20,0 C 20,0 C 77 % 0 lf 1001,2 hPa 0,0 l/m 2 min 0 min 559 W/m 41,8 km/h (6 Bft)
27.07.2015 15:40 20,1 C 19,4 C 76 % 0 lf 1001,1 hPa 0,0 l/m 0 min 0 min 239 W/m 33,5 km/h (5 Bft)
27.07.2015 15:42 20,1 C 18,9 C 75 % 0 lf 1001,2 hPa 0,0 l/m 0 min 0 min 147 W/m 29,3 km/h (5 Bft)
27.07.2015 15:44 20,1 C 18,9 C 76 % 0 lf 1001,1 hPa 0,0 l/m 0 min 0 min 103 W/m 16,7 km/h (3 Bft)
27.07.2015 15:46 20,1 C 18,3 C 76 % 1 lf 1001,2 hPa 0,0 l/m 0 min 0 min 59 W/m 43,9 km/h (6 Bft)
27.07.2015 15:48 19,9 C 17,8 C 75 % 3 lf 1001,3 hPa 0,0 l/m 0 min 2 min 100 W/m 48,1 km/h (6 Bft)
27.07.2015 15:50 19,9 C 18,3 C 75 % 0 lf 1001,3 hPa 0,0 l/m 0 min 2 min 223 W/m 41,8 km/h (6 Bft)
27.07.2015 15:52 19,8 C 18,3 C 76 % 0 lf 1001,3 hPa 0,0 l/m 0 min 0 min 336 W/m 43,9 km/h (6 Bft)
27.07.2015 15:54 19,9 C 19,4 C 76 % 0 lf 1001,2 hPa 0,0 l/m 2 min 0 min 387 W/m 41,8 km/h (6 Bft)
27.07.2015 15:56 19,9 C 20,0 C 76 % 0 lf 1001,2 hPa 0,0 l/m 2 min 0 min 644 W/m 48,1 km/h (6 Bft)
27.07.2015 15:58 20,1 C 20,0 C 76 % 0 lf 1001,2 hPa 0,0 l/m 2 min 0 min 551 W/m 52,3 km/h (7 Bft)
27.07.2015 16:00 20,3 C 20,6 C 75 % 0 lf 1001,1 hPa 0,0 l/m 2 min 0 min 920 W/m 39,7 km/h (6 Bft)
27.07.2015 16:02 20,4 C 20,6 C 75 % 0 lf 1001,2 hPa 0,0 l/m 2 min 0 min 975 W/m 39,7 km/h (6 Bft)
27.07.2015 16:04 20,6 C 20,6 C 73 % 0 lf 1001,2 hPa 0,0 l/m 2 min 0 min 371 W/m 48,1 km/h (6 Bft)
27.07.2015 16:06 20,7 C 20,6 C 74 % 0 lf 1001,2 hPa 0,0 l/m 2 min 0 min 371 W/m 31,4 km/h (5 Bft)
27.07.2015 16:08 20,8 C 20,6 C 72 % 0 lf 1001,2 hPa 0,0 l/m 2 min 0 min 371 W/m 59,8 km/h (7 Bft)
27.07.2015 16:10 20,9 C 20,6 C 72 % 0 lf 1001,3 hPa 0,0 l/m 2 min 0 min 371 W/m 41,8 km/h (6 Bft)
27.07.2015 16:12 21,0 C 20,6 C 71 % 0 lf 1001,3 hPa 0,0 l/m 2 min 0 min 371 W/m 41,8 km/h (6 Bft)
27.07.2015 16:14 21,1 C 20,6 C 70 % 0 lf 1001,2 hPa 0,0 l/m 2 min 0 min 466 W/m 52,3 km/h (7 Bft)
27.07.2015 16:16 21,1 C 20,6 C 70 % 0 lf 1001,3 hPa 0,0 l/m 2 min 0 min 473 W/m 37,7 km/h (5 Bft)
27.07.2015 16:18 21,2 C 20,6 C 71 % 0 lf 1001,3 hPa 0,0 l/m 2 min 0 min 473 W/m 39,7 km/h (6 Bft)
27.07.2015 16:20 21,3 C 21,1 C 70 % 0 lf 1001,2 hPa 0,0 l/m 2 min 0 min 473 W/m 43,9 km/h (6 Bft)
27.07.2015 16:22 21,4 C 21,1 C 69 % 0 lf 1001,3 hPa 0,0 l/m 2 min 0 min 473 W/m 43,9 km/h (6 Bft)
27.07.2015 16:24 21,4 C 21,7 C 70 % 0 lf 1001,4 hPa 0,0 l/m 2 min 0 min 473 W/m 54,4 km/h (7 Bft)
27.07.2015 16:26 21,5 C 21,1 C 69 % 0 lf 1001,4 hPa 0,0 l/m 2 min 0 min 473 W/m 48,1 km/h (6 Bft)
27.07.2015 16:28 21,6 C 21,7 C 69 % 0 lf 1001,3 hPa 0,0 l/m 2 min 0 min 473 W/m 46,0 km/h (6 Bft)
27.07.2015 16:30 21,6 C 21,7 C 68 % 0 lf 1001,4 hPa 0,0 l/m 2 min 0 min 466 W/m 46,0 km/h (6 Bft)
27.07.2015 16:32 21,6 C 21,1 C 67 % 0 lf 1001,3 hPa 0,0 l/m 2 min 0 min 461 W/m 52,3 km/h (7 Bft)
27.07.2015 16:34 21,6 C 21,7 C 67 % 0 lf 1001,5 hPa 0,0 l/m 2 min 0 min 446 W/m 54,4 km/h (7 Bft)
27.07.2015 16:36 21,6 C 21,7 C 67 % 0 lf 1001,3 hPa 0,0 l/m 2 min 0 min 450 W/m 52,3 km/h (7 Bft)
27.07.2015 16:38 21,6 C 21,7 C 68 % 0 lf 1001,4 hPa 0,0 l/m 2 min 0 min 464 W/m 46,0 km/h (6 Bft)
27.07.2015 16:40 21,6 C 22,2 C 67 % 0 lf 1001,4 hPa 0,0 l/m 2 min 0 min 653 W/m 52,3 km/h (7 Bft)
27.07.2015 16:42 21,6 C 21,7 C 67 % 0 lf 1001,4 hPa 0,0 l/m 2 min 0 min 710 W/m 43,9 km/h (6 Bft)
27.07.2015 16:44 21,6 C 22,2 C 67 % 0 lf 1001,4 hPa 0,0 l/m 2 min 0 min 651 W/m 35,6 km/h (5 Bft)
27.07.2015 16:46 21,7 C 21,7 C 68 % 0 lf 1001,5 hPa 0,0 l/m 0 min 0 min 211 W/m 37,7 km/h (5 Bft)
27.07.2015 16:48 21,7 C 21,1 C 67 % 0 lf 1001,5 hPa 0,0 l/m 0 min 0 min 219 W/m 43,9 km/h (6 Bft)
27.07.2015 16:50 21,6 C 20,6 C 68 % 0 lf 1001,5 hPa 0,0 l/m 0 min 0 min 285 W/m 35,6 km/h (5 Bft)
27.07.2015 16:52 21,6 C 20,6 C 68 % 0 lf 1001,5 hPa 0,0 l/m 0 min 0 min 225 W/m 31,4 km/h (5 Bft)
27.07.2015 16:54 21,6 C 20,0 C 68 % 0 lf 1001,6 hPa 0,0 l/m 0 min 0 min 231 W/m 27,2 km/h (4 Bft)
27.07.2015 16:56 21,5 C 20,0 C 68 % 0 lf 1001,5 hPa 0,0 l/m 0 min 0 min 251 W/m 43,9 km/h (6 Bft)
27.07.2015 16:58 21,4 C 20,0 C 69 % 0 lf 1001,6 hPa 0,0 l/m 0 min 0 min 269 W/m 31,4 km/h (5 Bft)
27.07.2015 17:00 21,4 C 20,6 C 70 % 0 lf 1001,6 hPa 0,0 l/m 2 min 0 min 327 W/m 41,8 km/h (6 Bft)
27.07.2015 17:02 21,4 C 20,0 C 69 % 0 lf 1001,6 hPa 0,0 l/m 2 min 0 min 634 W/m 46,0 km/h (6 Bft)
27.07.2015 17:04 21,4 C 20,0 C 69 % 0 lf 1001,6 hPa 0,0 l/m 0 min 0 min 223 W/m 35,6 km/h (5 Bft)
27.07.2015 17:06 21,3 C 20,0 C 69 % 0 lf 1001,7 hPa 0,0 l/m 2 min 0 min 307 W/m 29,3 km/h (5 Bft)
27.07.2015 17:08 21,3 C 20,0 C 69 % 0 lf 1001,8 hPa 0,0 l/m 2 min 0 min 332 W/m 39,7 km/h (6 Bft)
27.07.2015 17:10 21,2 C 20,0 C 69 % 0 lf 1001,7 hPa 0,0 l/m 2 min 0 min 334 W/m 33,5 km/h (5 Bft)
27.07.2015 17:12 21,3 C 20,6 C 70 % 0 lf 1001,7 hPa 0,0 l/m 2 min 0 min 372 W/m 16,7 km/h (3 Bft)
27.07.2015 17:14 21,3 C 20,6 C 69 % 0 lf 1001,7 hPa 0,0 l/m 2 min 0 min 318 W/m 41,8 km/h (6 Bft)
27.07.2015 17:16 21,2 C 20,0 C 69 % 0 lf 1001,8 hPa 0,0 l/m 2 min 0 min 309 W/m 33,5 km/h (5 Bft)
27.07.2015 17:18 21,2 C 20,0 C 68 % 0 lf 1001,8 hPa 0,0 l/m 2 min 0 min 330 W/m 46,0 km/h (6 Bft)
27.07.2015 17:20 21,2 C 20,0 C 68 % 0 lf 1001,7 hPa 0,0 l/m 2 min 0 min 482 W/m 39,7 km/h (6 Bft)
27.07.2015 17:22 21,2 C 20,0 C 68 % 0 lf 1001,8 hPa 0,0 l/m 2 min 0 min 296 W/m 37,7 km/h (5 Bft)
27.07.2015 17:23 21,2 C 20,0 C 68 % 0 lf 1001,9 hPa 0,0 l/m 1 min 0 min 304 W/m 37,7 km/h (5 Bft)
27.07.2015 17:24 21,1 C 20,0 C 68 % 0 lf 1001,8 hPa 0,0 l/m 1 min 0 min 338 W/m 29,3 km/h (5 Bft)
27.07.2015 17:25 21,1 C 20,0 C 68 % 0 lf 1001,8 hPa 0,0 l/m 0 min 0 min 264 W/m 25,1 km/h (4 Bft)
27.07.2015 17:26 21,1 C 20,0 C 69 % 0 lf 1001,9 hPa 0,0 l/m 1 min 0 min 288 W/m 31,4 km/h (5 Bft)
27.07.2015 17:27 21,1 C 20,0 C 69 % 0 lf 1001,8 hPa 0,0 l/m 0 min 0 min 267 W/m 33,5 km/h (5 Bft)
27.07.2015 17:28 21,1 C 20,0 C 68 % 0 lf 1001,8 hPa 0,0 l/m 0 min 0 min 267 W/m 35,6 km/h (5 Bft)
27.07.2015 17:29 21,1 C 20,0 C 68 % 0 lf 1001,9 hPa 0,0 l/m 0 min 0 min 230 W/m 48,1 km/h (6 Bft)
27.07.2015 17:30 21,1 C 19,4 C 68 % 0 lf 1001,9 hPa 0,0 l/m 0 min 0 min 214 W/m 41,8 km/h (6 Bft)
27.07.2015 17:31 21,0 C 19,4 C 68 % 0 lf 1001,9 hPa 0,0 l/m 0 min 0 min 230 W/m 33,5 km/h (5 Bft)
27.07.2015 17:32 21,0 C 19,4 C 68 % 0 lf 1002,0 hPa 0,0 l/m 0 min 0 min 255 W/m 41,8 km/h (6 Bft)
27.07.2015 17:33 21,0 C 19,4 C 68 % 0 lf 1002,0 hPa 0,0 l/m 0 min 0 min 265 W/m 33,5 km/h (5 Bft)
27.07.2015 17:34 21,0 C 19,4 C 68 % 0 lf 1002,0 hPa 0,0 l/m 0 min 0 min 257 W/m 29,3 km/h (5 Bft)
27.07.2015 17:35 21,0 C 20,0 C 69 % 0 lf 1002,0 hPa 0,0 l/m 0 min 0 min 253 W/m 25,1 km/h (4 Bft)
27.07.2015 17:36 21,0 C 20,0 C 69 % 0 lf 1001,9 hPa 0,0 l/m 0 min 0 min 264 W/m 29,3 km/h (5 Bft)
27.07.2015 17:37 21,0 C 20,0 C 69 % 0 lf 1001,9 hPa 0,0 l/m 1 min 0 min 283 W/m 35,6 km/h (5 Bft)
27.07.2015 17:38 20,9 C 20,0 C 69 % 0 lf 1001,9 hPa 0,0 l/m 0 min 0 min 269 W/m 37,7 km/h (5 Bft)
27.07.2015 17:39 21,0 C 20,0 C 70 % 0 lf 1001,9 hPa 0,0 l/m 1 min 0 min 269 W/m 23,0 km/h (4 Bft)
27.07.2015 17:40 21,0 C 20,0 C 70 % 0 lf 1002,0 hPa 0,0 l/m 1 min 0 min 670 W/m 41,8 km/h (6 Bft)
27.07.2015 17:41 21,0 C 20,0 C 70 % 0 lf 1002,0 hPa 0,0 l/m 1 min 0 min 613 W/m 31,4 km/h (5 Bft)
27.07.2015 17:42 21,1 C 20,0 C 70 % 0 lf 1002,0 hPa 0,0 l/m 1 min 0 min 567 W/m 37,7 km/h (5 Bft)
27.07.2015 17:43 21,1 C 20,0 C 70 % 0 lf 1002,0 hPa 0,0 l/m 1 min 0 min 534 W/m 23,0 km/h (4 Bft)
27.07.2015 17:44 21,1 C 20,0 C 70 % 0 lf 1001,9 hPa 0,0 l/m 1 min 0 min 533 W/m 29,3 km/h (5 Bft)
27.07.2015 17:45 21,2 C 20,0 C 69 % 0 lf 1002,0 hPa 0,0 l/m 1 min 0 min 533 W/m 29,3 km/h (5 Bft)
27.07.2015 17:46 21,2 C 20,0 C 69 % 0 lf 1001,9 hPa 0,0 l/m 1 min 0 min 533 W/m 18,8 km/h (3 Bft)
27.07.2015 17:47 21,2 C 20,0 C 70 % 0 lf 1001,9 hPa 0,0 l/m 0 min 0 min 118 W/m 27,2 km/h (4 Bft)
27.07.2015 17:48 21,2 C 19,4 C 69 % 0 lf 1001,8 hPa 0,0 l/m 0 min 0 min 134 W/m 54,4 km/h (7 Bft)
27.07.2015 17:50 21,2 C 19,4 C 68 % 0 lf 1002,0 hPa 0,0 l/m 0 min 0 min 134 W/m 29,3 km/h (5 Bft)
27.07.2015 17:52 21,2 C 19,4 C 68 % 0 lf 1002,0 hPa 0,0 l/m 0 min 0 min 163 W/m 41,8 km/h (6 Bft)
27.07.2015 17:54 21,2 C 19,4 C 68 % 0 lf 1002,0 hPa 0,0 l/m 0 min 0 min 169 W/m 35,6 km/h (5 Bft)
27.07.2015 17:56 21,1 C 19,4 C 68 % 0 lf 1002,0 hPa 0,0 l/m 0 min 0 min 169 W/m 37,7 km/h (5 Bft)
27.07.2015 17:59 21,1 C 19,4 C 69 % 0 lf 1002,0 hPa 0,0 l/m 2 min 0 min 523 W/m 37,7 km/h (5 Bft)
27.07.2015 18:00 21,1 C 19,4 C 68 % 0 lf 1002,0 hPa 0,0 l/m 1 min 0 min 503 W/m 29,3 km/h (5 Bft)
27.07.2015 18:04 21,1 C 19,4 C 68 % 0 lf 1001,9 hPa 0,0 l/m 2 min 0 min 472 W/m 43,9 km/h (6 Bft)
27.07.2015 18:05 21,1 C 18,9 C 68 % 0 lf 1001,9 hPa 0,0 l/m 1 min 0 min 445 W/m 41,8 km/h (6 Bft)
27.07.2015 18:06 21,1 C 18,9 C 68 % 0 lf 1001,9 hPa 0,0 l/m 1 min 0 min 439 W/m 41,8 km/h (6 Bft)
27.07.2015 18:07 21,1 C 18,9 C 68 % 0 lf 1001,9 hPa 0,0 l/m 1 min 0 min 441 W/m 27,2 km/h (4 Bft)
27.07.2015 18:08 21,0 C 18,9 C 68 % 0 lf 1001,8 hPa 0,0 l/m 1 min 0 min 438 W/m 29,3 km/h (5 Bft)
27.07.2015 18:10 21,0 C 18,9 C 68 % 0 lf 1001,9 hPa 0,0 l/m 2 min 0 min 441 W/m 27,2 km/h (4 Bft)
27.07.2015 18:12 21,0 C 18,9 C 69 % 0 lf 1001,9 hPa 0,0 l/m 2 min 0 min 441 W/m 29,3 km/h (5 Bft)
27.07.2015 18:14 21,0 C 18,9 C 69 % 0 lf 1001,9 hPa 0,0 l/m 2 min 0 min 455 W/m 29,3 km/h (5 Bft)
27.07.2015 18:16 20,9 C 18,9 C 68 % 0 lf 1001,9 hPa 0,0 l/m 2 min 0 min 438 W/m 41,8 km/h (6 Bft)
27.07.2015 18:18 20,9 C 18,9 C 69 % 0 lf 1002,0 hPa 0,0 l/m 0 min 0 min 124 W/m 27,2 km/h (4 Bft)
27.07.2015 18:20 20,9 C 18,9 C 69 % 0 lf 1001,8 hPa 0,0 l/m 0 min 0 min 134 W/m 27,2 km/h (4 Bft)
27.07.2015 18:22 20,9 C 18,9 C 69 % 0 lf 1001,9 hPa 0,0 l/m 0 min 0 min 135 W/m 29,3 km/h (5 Bft)
27.07.2015 18:24 20,8 C 18,9 C 69 % 0 lf 1001,9 hPa 0,0 l/m 0 min 0 min 151 W/m 23,0 km/h (4 Bft)
27.07.2015 18:26 20,8 C 19,4 C 70 % 0 lf 1002,0 hPa 0,0 l/m 0 min 0 min 175 W/m 25,1 km/h (4 Bft)
27.07.2015 18:28 20,8 C 19,4 C 70 % 0 lf 1002,0 hPa 0,0 l/m 2 min 0 min 324 W/m 39,7 km/h (6 Bft)
27.07.2015 18:30 20,8 C 19,4 C 70 % 0 lf 1001,9 hPa 0,0 l/m 2 min 0 min 476 W/m 41,8 km/h (6 Bft)
27.07.2015 18:32 20,8 C 19,4 C 69 % 0 lf 1002,0 hPa 0,0 l/m 0 min 0 min 154 W/m 31,4 km/h (5 Bft)
27.07.2015 18:34 20,8 C 19,4 C 69 % 0 lf 1002,0 hPa 0,0 l/m 2 min 0 min 305 W/m 37,7 km/h (5 Bft)
27.07.2015 18:36 20,8 C 19,4 C 70 % 0 lf 1002,0 hPa 0,0 l/m 2 min 0 min 447 W/m 37,7 km/h (5 Bft)
27.07.2015 18:38 20,8 C 19,4 C 70 % 0 lf 1001,9 hPa 0,0 l/m 2 min 0 min 431 W/m 29,3 km/h (5 Bft)
27.07.2015 18:40 20,9 C 19,4 C 70 % 0 lf 1001,9 hPa 0,0 l/m 2 min 0 min 383 W/m 27,2 km/h (4 Bft)
27.07.2015 18:42 20,9 C 19,4 C 70 % 0 lf 1001,8 hPa 0,0 l/m 2 min 0 min 353 W/m 18,8 km/h (3 Bft)
27.07.2015 18:44 20,9 C 18,9 C 70 % 0 lf 1002,0 hPa 0,0 l/m 2 min 0 min 337 W/m 20,9 km/h (4 Bft)
27.07.2015 18:46 20,9 C 18,9 C 70 % 0 lf 1002,0 hPa 0,0 l/m 2 min 0 min 211 W/m 35,6 km/h (5 Bft)
27.07.2015 18:48 20,9 C 18,9 C 69 % 0 lf 1001,9 hPa 0,0 l/m 0 min 0 min 119 W/m 50,2 km/h (7 Bft)
27.07.2015 18:50 20,8 C 18,9 C 69 % 0 lf 1001,9 hPa 0,0 l/m 0 min 0 min 163 W/m 31,4 km/h (5 Bft)
27.07.2015 18:52 20,8 C 18,9 C 69 % 0 lf 1001,9 hPa 0,0 l/m 0 min 0 min 161 W/m 31,4 km/h (5 Bft)
27.07.2015 18:54 20,8 C 18,9 C 69 % 0 lf 1001,9 hPa 0,0 l/m 0 min 0 min 156 W/m 35,6 km/h (5 Bft)
27.07.2015 18:56 20,7 C 19,4 C 69 % 0 lf 1001,8 hPa 0,0 l/m 2 min 0 min 295 W/m 20,9 km/h (4 Bft)
27.07.2015 18:58 20,7 C 19,4 C 70 % 0 lf 1001,8 hPa 0,0 l/m 2 min 0 min 398 W/m 23,0 km/h (4 Bft)
27.07.2015 19:00 20,7 C 19,4 C 70 % 0 lf 1001,9 hPa 0,0 l/m 2 min 0 min 305 W/m 31,4 km/h (5 Bft)
27.07.2015 19:02 20,7 C 18,9 C 70 % 0 lf 1001,9 hPa 0,0 l/m 0 min 0 min 96 W/m 33,5 km/h (5 Bft)
27.07.2015 19:04 20,7 C 18,9 C 70 % 0 lf 1001,9 hPa 0,0 l/m 0 min 0 min 106 W/m 27,2 km/h (4 Bft)
27.07.2015 19:06 20,7 C 18,9 C 70 % 0 lf 1001,9 hPa 0,0 l/m 0 min 0 min 87 W/m 39,7 km/h (6 Bft)
27.07.2015 19:08 20,7 C 18,9 C 70 % 0 lf 1001,9 hPa 0,0 l/m 0 min 0 min 68 W/m 23,0 km/h (4 Bft)
27.07.2015 19:10 20,6 C 18,3 C 70 % 0 lf 1001,9 hPa 0,0 l/m 0 min 0 min 66 W/m 29,3 km/h (5 Bft)
27.07.2015 19:12 20,6 C 18,3 C 70 % 0 lf 1001,9 hPa 0,0 l/m 0 min 0 min 69 W/m 25,1 km/h (4 Bft)
27.07.2015 19:14 20,5 C 18,3 C 71 % 0 lf 1001,9 hPa 0,0 l/m 0 min 0 min 67 W/m 23,0 km/h (4 Bft)
27.07.2015 19:16 20,4 C 18,3 C 71 % 0 lf 1001,9 hPa 0,0 l/m 0 min 0 min 59 W/m 27,2 km/h (4 Bft)
27.07.2015 19:18 20,4 C 18,3 C 71 % 0 lf 1001,9 hPa 0,0 l/m 0 min 0 min 48 W/m 16,7 km/h (3 Bft)
27.07.2015 19:20 20,4 C 18,3 C 71 % 0 lf 1001,9 hPa 0,0 l/m 0 min 0 min 37 W/m 18,8 km/h (3 Bft)
27.07.2015 19:22 20,3 C 18,3 C 71 % 0 lf 1001,9 hPa 0,0 l/m 0 min 0 min 33 W/m 27,2 km/h (4 Bft)
27.07.2015 19:24 20,3 C 18,3 C 71 % 0 lf 1001,9 hPa 0,0 l/m 0 min 0 min 34 W/m 29,3 km/h (5 Bft)
27.07.2015 19:26 20,2 C 17,8 C 71 % 0 lf 1002,0 hPa 0,0 l/m 0 min 2 min 41 W/m 33,5 km/h (5 Bft)
27.07.2015 19:28 20,2 C 16,1 C 73 % 15 lf 1002,2 hPa 0,0 l/m 0 min 2 min 48 W/m 41,8 km/h (6 Bft)
27.07.2015 19:30 20,1 C 15,6 C 74 % 15 lf 1002,1 hPa 0,0 l/m 0 min 2 min 97 W/m 29,3 km/h (5 Bft)
27.07.2015 19:32 19,9 C 15,6 C 77 % 15 lf 1002,4 hPa 0,2 l/m 2 min 2 min 136 W/m 37,7 km/h (5 Bft)
27.07.2015 19:34 19,7 C 15,0 C 78 % 15 lf 1002,2 hPa 0,0 l/m 2 min 2 min 151 W/m 25,1 km/h (4 Bft)
27.07.2015 19:36 19,6 C 15,6 C 79 % 15 lf 1002,3 hPa 0,0 l/m 2 min 0 min 136 W/m 20,9 km/h (4 Bft)
27.07.2015 19:38 19,5 C 15,6 C 80 % 15 lf 1002,4 hPa 0,0 l/m 0 min 0 min 127 W/m 25,1 km/h (4 Bft)
27.07.2015 19:40 19,3 C 15,6 C 81 % 15 lf 1002,3 hPa 0,0 l/m 0 min 0 min 117 W/m 18,8 km/h (3 Bft)
27.07.2015 19:42 19,2 C 15,6 C 81 % 15 lf 1002,3 hPa 0,0 l/m 0 min 0 min 93 W/m 18,8 km/h (3 Bft)
27.07.2015 19:44 19,1 C 15,6 C 82 % 15 lf 1002,4 hPa 0,0 l/m 0 min 0 min 91 W/m 14,6 km/h (3 Bft)
27.07.2015 19:46 19,1 C 15,6 C 82 % 15 lf 1002,4 hPa 0,0 l/m 0 min 0 min 101 W/m 18,8 km/h (3 Bft)
27.07.2015 19:48 18,9 C 15,6 C 83 % 15 lf 1002,3 hPa 0,0 l/m 2 min 0 min 127 W/m 14,6 km/h (3 Bft)
27.07.2015 19:50 18,9 C 15,6 C 83 % 15 lf 1002,2 hPa 0,0 l/m 2 min 0 min 137 W/m 14,6 km/h (3 Bft)
27.07.2015 19:52 18,8 C 15,6 C 83 % 15 lf 1002,3 hPa 0,0 l/m 2 min 0 min 207 W/m 25,1 km/h (4 Bft)
27.07.2015 19:54 18,7 C 15,6 C 83 % 15 lf 1002,3 hPa 0,0 l/m 2 min 0 min 179 W/m 14,6 km/h (3 Bft)
27.07.2015 19:56 18,7 C 15,6 C 83 % 15 lf 1002,3 hPa 0,0 l/m 2 min 0 min 170 W/m 23,0 km/h (4 Bft)
27.07.2015 19:58 18,6 C 15,6 C 84 % 15 lf 1002,2 hPa 0,0 l/m 2 min 0 min 155 W/m 25,1 km/h (4 Bft)
27.07.2015 20:00 18,6 C 15,6 C 84 % 15 lf 1002,2 hPa 0,0 l/m 2 min 0 min 137 W/m 23,0 km/h (4 Bft)
27.07.2015 20:02 18,6 C 15,0 C 84 % 15 lf 1002,3 hPa 0,0 l/m 2 min 0 min 123 W/m 20,9 km/h (4 Bft)
27.07.2015 20:04 18,5 C 15,0 C 84 % 14 lf 1002,3 hPa 0,0 l/m 2 min 0 min 114 W/m 25,1 km/h (4 Bft)
27.07.2015 20:06 18,4 C 15,0 C 84 % 13 lf 1002,3 hPa 0,0 l/m 2 min 0 min 108 W/m 18,8 km/h (3 Bft)
27.07.2015 20:08 18,4 C 15,0 C 84 % 9 lf 1002,3 hPa 0,0 l/m 0 min 0 min 71 W/m 25,1 km/h (4 Bft)
27.07.2015 20:10 18,4 C 15,0 C 84 % 4 lf 1002,3 hPa 0,0 l/m 0 min 0 min 64 W/m 18,8 km/h (3 Bft)
27.07.2015 20:12 18,4 C 15,0 C 84 % 2 lf 1002,3 hPa 0,0 l/m 0 min 0 min 72 W/m 23,0 km/h (4 Bft)
27.07.2015 20:14 18,3 C 15,0 C 84 % 0 lf 1002,4 hPa 0,0 l/m 0 min 0 min 44 W/m 18,8 km/h (3 Bft)
27.07.2015 20:16 18,3 C 15,0 C 84 % 0 lf 1002,5 hPa 0,0 l/m 0 min 0 min 33 W/m 20,9 km/h (4 Bft)
27.07.2015 20:18 18,3 C 15,0 C 84 % 0 lf 1002,5 hPa 0,0 l/m 0 min 0 min 33 W/m 18,8 km/h (3 Bft)
27.07.2015 20:20 18,3 C 15,0 C 84 % 0 lf 1002,6 hPa 0,0 l/m 0 min 0 min 33 W/m 18,8 km/h (3 Bft)
27.07.2015 20:22 18,3 C 15,0 C 84 % 0 lf 1002,6 hPa 0,0 l/m 0 min 0 min 31 W/m 16,7 km/h (3 Bft)
27.07.2015 20:24 18,2 C 15,0 C 85 % 0 lf 1002,6 hPa 0,0 l/m 0 min 0 min 25 W/m 16,7 km/h (3 Bft)
27.07.2015 20:26 18,2 C 15,0 C 84 % 0 lf 1002,7 hPa 0,0 l/m 0 min 0 min 20 W/m 18,8 km/h (3 Bft)
27.07.2015 20:28 18,2 C 15,0 C 85 % 0 lf 1002,7 hPa 0,0 l/m 0 min 0 min 14 W/m 16,7 km/h (3 Bft)
27.07.2015 20:30 18,2 C 15,0 C 85 % 0 lf 1002,8 hPa 0,0 l/m 0 min 0 min 11 W/m 14,6 km/h (3 Bft)
27.07.2015 20:32 18,2 C 15,0 C 85 % 3 lf 1002,8 hPa 0,0 l/m 0 min 0 min 9 W/m 16,7 km/h (3 Bft)
27.07.2015 20:34 18,2 C 15,0 C 85 % 5 lf 1002,9 hPa 0,0 l/m 0 min 2 min 11 W/m 16,7 km/h (3 Bft)
27.07.2015 20:36 18,1 C 15,0 C 85 % 12 lf 1002,8 hPa 0,0 l/m 0 min 2 min 11 W/m 20,9 km/h (4 Bft)
27.07.2015 20:38 18,1 C 15,0 C 86 % 11 lf 1002,9 hPa 0,0 l/m 0 min 2 min 13 W/m 16,7 km/h (3 Bft)
27.07.2015 20:40 18,1 C 15,0 C 86 % 9 lf 1003,0 hPa 0,0 l/m 0 min 0 min 21 W/m 18,8 km/h (3 Bft)
27.07.2015 20:42 18,1 C 15,0 C 86 % 4 lf 1003,0 hPa 0,0 l/m 0 min 0 min 29 W/m 16,7 km/h (3 Bft)
27.07.2015 20:44 18,1 C 15,0 C 86 % 3 lf 1003,0 hPa 0,0 l/m 0 min 0 min 37 W/m 16,7 km/h (3 Bft)
27.07.2015 20:46 18,1 C 15,0 C 87 % 2 lf 1003,0 hPa 0,0 l/m 0 min 0 min 38 W/m 23,0 km/h (4 Bft)
27.07.2015 20:48 18,1 C 15,0 C 87 % 1 lf 1003,0 hPa 0,0 l/m 2 min 0 min 44 W/m 27,2 km/h (4 Bft)
27.07.2015 20:50 18,0 C 15,0 C 87 % 1 lf 1003,0 hPa 0,0 l/m 2 min 0 min 45 W/m 29,3 km/h (5 Bft)
27.07.2015 20:52 17,9 C 15,0 C 86 % 0 lf 1003,0 hPa 0,0 l/m 2 min 0 min 49 W/m 29,3 km/h (5 Bft)
27.07.2015 20:54 17,9 C 15,6 C 86 % 0 lf 1003,1 hPa 0,0 l/m 2 min 0 min 53 W/m 18,8 km/h (3 Bft)
27.07.2015 20:56 17,9 C 15,6 C 86 % 0 lf 1002,9 hPa 0,0 l/m 2 min 0 min 48 W/m 20,9 km/h (4 Bft)
27.07.2015 20:58 17,8 C 15,6 C 86 % 0 lf 1003,0 hPa 0,0 l/m 2 min 0 min 44 W/m 20,9 km/h (4 Bft)
27.07.2015 21:00 17,8 C 15,6 C 85 % 0 lf 1003,0 hPa 0,0 l/m 2 min 0 min 31 W/m 20,9 km/h (4 Bft)
27.07.2015 21:02 17,8 C 15,6 C 85 % 0 lf 1003,0 hPa 0,0 l/m 0 min 0 min 22 W/m 29,3 km/h (5 Bft)
27.07.2015 21:04 17,7 C 15,6 C 85 % 0 lf 1003,0 hPa 0,0 l/m 0 min 0 min 19 W/m 25,1 km/h (4 Bft)
27.07.2015 21:06 17,7 C 15,6 C 85 % 0 lf 1003,1 hPa 0,0 l/m 0 min 0 min 18 W/m 25,1 km/h (4 Bft)
27.07.2015 21:08 17,7 C 15,6 C 85 % 0 lf 1003,1 hPa 0,0 l/m 2 min 0 min 20 W/m 16,7 km/h (3 Bft)
27.07.2015 21:10 17,7 C 15,6 C 85 % 0 lf 1003,1 hPa 0,0 l/m 2 min 0 min 21 W/m 20,9 km/h (4 Bft)
27.07.2015 21:12 17,6 C 15,6 C 85 % 0 lf 1003,1 hPa 0,0 l/m 2 min 0 min 20 W/m 18,8 km/h (3 Bft)
27.07.2015 21:14 17,6 C 15,6 C 85 % 0 lf 1003,0 hPa 0,0 l/m 2 min 0 min 29 W/m 16,7 km/h (3 Bft)
27.07.2015 21:16 17,6 C 15,6 C 85 % 0 lf 1003,1 hPa 0,0 l/m 2 min 0 min 24 W/m 16,7 km/h (3 Bft)
27.07.2015 21:18 17,6 C 15,0 C 86 % 0 lf 1003,1 hPa 0,0 l/m 0 min 0 min 19 W/m 18,8 km/h (3 Bft)
27.07.2015 21:20 17,6 C 15,0 C 86 % 0 lf 1003,0 hPa 0,0 l/m 0 min 0 min 13 W/m 16,7 km/h (3 Bft)
27.07.2015 21:22 17,5 C 15,0 C 86 % 0 lf 1003,1 hPa 0,0 l/m 0 min 0 min 10 W/m 18,8 km/h (3 Bft)
27.07.2015 21:24 17,4 C 15,0 C 86 % 1 lf 1003,0 hPa 0,0 l/m 0 min 0 min 9 W/m 18,8 km/h (3 Bft)
27.07.2015 21:26 17,4 C 15,0 C 86 % 1 lf 1002,9 hPa 0,0 l/m 0 min 0 min 9 W/m 20,9 km/h (4 Bft)
27.07.2015 21:28 17,4 C 15,0 C 86 % 1 lf 1003,0 hPa 0,0 l/m 0 min 0 min 7 W/m 20,9 km/h (4 Bft)
27.07.2015 21:30 17,3 C 15,0 C 86 % 1 lf 1003,0 hPa 0,0 l/m 0 min 0 min 7 W/m 18,8 km/h (3 Bft)
27.07.2015 21:32 17,3 C 15,0 C 86 % 1 lf 1003,0 hPa 0,0 l/m 0 min 0 min 6 W/m 20,9 km/h (4 Bft)
27.07.2015 21:34 17,2 C 15,0 C 86 % 1 lf 1002,9 hPa 0,0 l/m 0 min 0 min 5 W/m 20,9 km/h (4 Bft)
27.07.2015 21:36 17,2 C 15,0 C 86 % 1 lf 1002,9 hPa 0,0 l/m 0 min 0 min 5 W/m 25,1 km/h (4 Bft)
27.07.2015 21:38 17,2 C 15,0 C 87 % 1 lf 1002,9 hPa 0,0 l/m 0 min 0 min 4 W/m 20,9 km/h (4 Bft)
27.07.2015 21:40 17,1 C 15,0 C 87 % 1 lf 1002,9 hPa 0,0 l/m 0 min 0 min 0 W/m 27,2 km/h (4 Bft)
27.07.2015 21:42 17,1 C 15,0 C 87 % 1 lf 1002,9 hPa 0,0 l/m 0 min 0 min 0 W/m 23,0 km/h (4 Bft)
27.07.2015 21:44 17,0 C 15,0 C 87 % 1 lf 1002,9 hPa 0,0 l/m 0 min 0 min 0 W/m 18,8 km/h (3 Bft)
27.07.2015 21:46 16,9 C 15,0 C 87 % 1 lf 1002,9 hPa 0,0 l/m 0 min 0 min 0 W/m 18,8 km/h (3 Bft)
27.07.2015 21:48 16,9 C 15,0 C 87 % 1 lf 1002,9 hPa 0,0 l/m 0 min 0 min 0 W/m 20,9 km/h (4 Bft)
27.07.2015 21:50 16,9 C 15,0 C 87 % 1 lf 1002,9 hPa 0,0 l/m 0 min 0 min 0 W/m 27,2 km/h (4 Bft)
27.07.2015 21:52 16,8 C 15,0 C 87 % 1 lf 1002,9 hPa 0,0 l/m 0 min 0 min 0 W/m 25,1 km/h (4 Bft)
27.07.2015 21:54 16,8 C 15,0 C 87 % 1 lf 1002,9 hPa 0,0 l/m 0 min 0 min 0 W/m 20,9 km/h (4 Bft)
27.07.2015 21:56 16,8 C 15,0 C 87 % 1 lf 1002,9 hPa 0,0 l/m 0 min 0 min 0 W/m 18,8 km/h (3 Bft)
27.07.2015 21:58 16,8 C 15,0 C 87 % 1 lf 1003,0 hPa 0,0 l/m 0 min 0 min 0 W/m 16,7 km/h (3 Bft)
27.07.2015 22:00 16,7 C 15,0 C 87 % 0 lf 1003,0 hPa 0,0 l/m 0 min 0 min 0 W/m 23,0 km/h (4 Bft)
27.07.2015 22:02 16,7 C 15,0 C 87 % 0 lf 1003,1 hPa 0,0 l/m 0 min 0 min 0 W/m 23,0 km/h (4 Bft)
27.07.2015 22:04 16,7 C 15,0 C 87 % 0 lf 1003,1 hPa 0,0 l/m 0 min 0 min 0 W/m 29,3 km/h (5 Bft)
27.07.2015 22:06 16,6 C 15,0 C 86 % 0 lf 1003,1 hPa 0,0 l/m 0 min 0 min 0 W/m 25,1 km/h (4 Bft)
27.07.2015 22:08 16,6 C 15,0 C 86 % 0 lf 1003,1 hPa 0,0 l/m 0 min 0 min 0 W/m 25,1 km/h (4 Bft)
27.07.2015 22:10 16,6 C 15,0 C 86 % 0 lf 1003,2 hPa 0,0 l/m 0 min 0 min 0 W/m 29,3 km/h (5 Bft)
27.07.2015 22:12 16,6 C 15,0 C 86 % 0 lf 1003,3 hPa 0,0 l/m 0 min 0 min 0 W/m 20,9 km/h (4 Bft)
27.07.2015 22:14 16,5 C 15,0 C 86 % 0 lf 1003,2 hPa 0,0 l/m 0 min 0 min 0 W/m 25,1 km/h (4 Bft)
27.07.2015 22:16 16,5 C 15,0 C 86 % 0 lf 1003,3 hPa 0,0 l/m 0 min 0 min 0 W/m 23,0 km/h (4 Bft)
27.07.2015 22:18 16,4 C 15,0 C 86 % 0 lf 1003,2 hPa 0,0 l/m 0 min 0 min 0 W/m 27,2 km/h (4 Bft)
27.07.2015 22:20 16,4 C 15,0 C 85 % 0 lf 1003,2 hPa 0,0 l/m 0 min 0 min 0 W/m 33,5 km/h (5 Bft)
27.07.2015 22:22 16,4 C 15,0 C 85 % 0 lf 1003,3 hPa 0,0 l/m 0 min 0 min 0 W/m 23,0 km/h (4 Bft)
27.07.2015 22:24 16,4 C 15,0 C 85 % 0 lf 1003,4 hPa 0,0 l/m 0 min 0 min 0 W/m 23,0 km/h (4 Bft)
27.07.2015 22:26 16,4 C 15,0 C 85 % 0 lf 1003,4 hPa 0,0 l/m 0 min 0 min 0 W/m 20,9 km/h (4 Bft)
27.07.2015 22:28 16,4 C 15,0 C 85 % 0 lf 1003,4 hPa 0,0 l/m 0 min 0 min 0 W/m 27,2 km/h (4 Bft)
27.07.2015 22:30 16,3 C 15,0 C 85 % 0 lf 1003,5 hPa 0,0 l/m 0 min 0 min 0 W/m 23,0 km/h (4 Bft)
27.07.2015 22:32 16,3 C 14,4 C 85 % 0 lf 1003,5 hPa 0,0 l/m 0 min 0 min 0 W/m 18,8 km/h (3 Bft)
27.07.2015 22:34 16,3 C 14,4 C 85 % 0 lf 1003,5 hPa 0,0 l/m 0 min 0 min 0 W/m 12,6 km/h (3 Bft)
27.07.2015 22:36 16,3 C 14,4 C 85 % 0 lf 1003,5 hPa 0,0 l/m 0 min 0 min 0 W/m 14,6 km/h (3 Bft)
27.07.2015 22:38 16,3 C 14,4 C 85 % 0 lf 1003,5 hPa 0,0 l/m 0 min 0 min 0 W/m 16,7 km/h (3 Bft)
27.07.2015 22:40 16,3 C 14,4 C 85 % 0 lf 1003,5 hPa 0,0 l/m 0 min 0 min 0 W/m 14,6 km/h (3 Bft)
27.07.2015 22:42 16,2 C 14,4 C 85 % 0 lf 1003,5 hPa 0,0 l/m 0 min 0 min 0 W/m 16,7 km/h (3 Bft)
27.07.2015 22:44 16,2 C 14,4 C 85 % 0 lf 1003,5 hPa 0,0 l/m 0 min 0 min 0 W/m 14,6 km/h (3 Bft)
27.07.2015 22:46 16,2 C 14,4 C 85 % 0 lf 1003,5 hPa 0,0 l/m 0 min 0 min 0 W/m 18,8 km/h (3 Bft)
27.07.2015 22:48 16,1 C 14,4 C 85 % 0 lf 1003,4 hPa 0,0 l/m 0 min 0 min 0 W/m 20,9 km/h (4 Bft)
27.07.2015 22:50 16,1 C 14,4 C 85 % 0 lf 1003,5 hPa 0,0 l/m 0 min 0 min 0 W/m 20,9 km/h (4 Bft)
27.07.2015 22:52 16,1 C 14,4 C 84 % 0 lf 1003,4 hPa 0,0 l/m 0 min 0 min 0 W/m 25,1 km/h (4 Bft)
27.07.2015 22:54 16,0 C 14,4 C 84 % 0 lf 1003,4 hPa 0,0 l/m 0 min 0 min 0 W/m 25,1 km/h (4 Bft)
27.07.2015 22:56 15,9 C 14,4 C 84 % 0 lf 1003,5 hPa 0,0 l/m 0 min 0 min 0 W/m 23,0 km/h (4 Bft)
27.07.2015 22:58 15,9 C 14,4 C 83 % 0 lf 1003,5 hPa 0,0 l/m 0 min 0 min 0 W/m 27,2 km/h (4 Bft)
27.07.2015 23:00 15,9 C 14,4 C 83 % 0 lf 1003,4 hPa 0,0 l/m 0 min 0 min 0 W/m 20,9 km/h (4 Bft)
27.07.2015 23:02 15,9 C 14,4 C 82 % 0 lf 1003,4 hPa 0,0 l/m 0 min 0 min 0 W/m 16,7 km/h (3 Bft)
27.07.2015 23:04 15,9 C 14,4 C 82 % 0 lf 1003,5 hPa 0,0 l/m 0 min 0 min 0 W/m 20,9 km/h (4 Bft)
27.07.2015 23:06 15,9 C 14,4 C 82 % 0 lf 1003,5 hPa 0,0 l/m 0 min 0 min 0 W/m 16,7 km/h (3 Bft)
27.07.2015 23:08 15,9 C 14,4 C 82 % 0 lf 1003,5 hPa 0,0 l/m 0 min 0 min 0 W/m 29,3 km/h (5 Bft)
27.07.2015 23:10 15,9 C 14,4 C 82 % 0 lf 1003,5 hPa 0,0 l/m 0 min 0 min 0 W/m 37,7 km/h (5 Bft)
27.07.2015 23:12 15,9 C 14,4 C 81 % 0 lf 1003,5 hPa 0,0 l/m 0 min 0 min 0 W/m 29,3 km/h (5 Bft)
27.07.2015 23:14 15,9 C 14,4 C 80 % 0 lf 1003,5 hPa 0,0 l/m 0 min 0 min 0 W/m 23,0 km/h (4 Bft)
27.07.2015 23:16 15,9 C 14,4 C 80 % 0 lf 1003,6 hPa 0,0 l/m 0 min 0 min 0 W/m 16,7 km/h (3 Bft)
27.07.2015 23:18 15,9 C 14,4 C 80 % 0 lf 1003,6 hPa 0,0 l/m 0 min 0 min 0 W/m 20,9 km/h (4 Bft)
27.07.2015 23:20 15,9 C 14,4 C 80 % 0 lf 1003,6 hPa 0,0 l/m 0 min 0 min 0 W/m 33,5 km/h (5 Bft)
27.07.2015 23:22 15,8 C 14,4 C 79 % 0 lf 1003,6 hPa 0,0 l/m 0 min 0 min 0 W/m 23,0 km/h (4 Bft)
27.07.2015 23:24 15,8 C 14,4 C 79 % 0 lf 1003,6 hPa 0,0 l/m 0 min 0 min 0 W/m 27,2 km/h (4 Bft)
27.07.2015 23:26 15,8 C 14,4 C 79 % 0 lf 1003,6 hPa 0,0 l/m 0 min 0 min 0 W/m 29,3 km/h (5 Bft)
27.07.2015 23:28 15,8 C 14,4 C 78 % 0 lf 1003,7 hPa 0,0 l/m 0 min 0 min 0 W/m 18,8 km/h (3 Bft)
27.07.2015 23:30 15,8 C 14,4 C 78 % 0 lf 1003,7 hPa 0,0 l/m 0 min 0 min 0 W/m 20,9 km/h (4 Bft)
27.07.2015 23:32 15,8 C 13,9 C 78 % 0 lf 1003,7 hPa 0,0 l/m 0 min 0 min 0 W/m 14,6 km/h (3 Bft)
27.07.2015 23:34 15,8 C 13,9 C 78 % 0 lf 1003,8 hPa 0,0 l/m 0 min 0 min 0 W/m 20,9 km/h (4 Bft)
27.07.2015 23:36 15,8 C 13,9 C 78 % 0 lf 1003,8 hPa 0,0 l/m 0 min 0 min 0 W/m 16,7 km/h (3 Bft)
27.07.2015 23:38 15,8 C 13,9 C 78 % 0 lf 1003,8 hPa 0,0 l/m 0 min 0 min 0 W/m 16,7 km/h (3 Bft)
27.07.2015 23:40 15,7 C 13,9 C 78 % 0 lf 1003,8 hPa 0,0 l/m 0 min 0 min 0 W/m 16,7 km/h (3 Bft)
27.07.2015 23:42 15,7 C 13,9 C 78 % 0 lf 1003,9 hPa 0,0 l/m 0 min 0 min 0 W/m 18,8 km/h (3 Bft)
27.07.2015 23:44 15,7 C 13,9 C 78 % 0 lf 1003,9 hPa 0,0 l/m 0 min 0 min 0 W/m 14,6 km/h (3 Bft)
27.07.2015 23:46 15,7 C 13,9 C 78 % 0 lf 1003,9 hPa 0,0 l/m 0 min 0 min 0 W/m 18,8 km/h (3 Bft)
27.07.2015 23:48 15,6 C 13,9 C 77 % 0 lf 1003,9 hPa 0,0 l/m 0 min 0 min 0 W/m 18,8 km/h (3 Bft)
27.07.2015 23:50 15,6 C 13,9 C 77 % 0 lf 1004,0 hPa 0,0 l/m 0 min 0 min 0 W/m 12,6 km/h (3 Bft)
27.07.2015 23:52 15,6 C 13,9 C 77 % 0 lf 1003,9 hPa 0,0 l/m 0 min 0 min 0 W/m 12,6 km/h (3 Bft)
27.07.2015 23:54 15,6 C 13,9 C 77 % 0 lf 1003,9 hPa 0,0 l/m 0 min 0 min 0 W/m 25,1 km/h (4 Bft)
27.07.2015 23:56 15,5 C 13,9 C 77 % 0 lf 1003,9 hPa 0,0 l/m 0 min 0 min 0 W/m 14,6 km/h (3 Bft)
27.07.2015 23:58 15,5 C 13,9 C 77 % 0 lf 1004,0 hPa 0,0 l/m 0 min 0 min 0 W/m 16,7 km/h (3 Bft)
_ Min-Zeit 01:58 00:00 16:32 00:05 07:58 - - - - 03:32
Minimum _ 13,5 C 12,2 C 67 % 0 lf 999,8 hPa - - - - 6,3 km/h (2 Bft)
_ Max-Zeit 16:46 16:40 06:10 00:42 23:50 00:46 06:44 00:02 15:12 16:08
Maximum _ 21,7 C 22,2 C 97 % 15 lf 1004,0 hPa 0,2 l/m 2 min 2 min 1027 W/m 59,8 km/h
SW (7 Bft)
Durchschnitt _ 16,7 C 15,1 C 87 % 6 lf 1001,3 hPa #2,2 l/m #3:45 h #3:22 h 192 W/m 23,9 km/h (4 Bft)
© 2015 W. Hausmann